OCN193 EDDF-MDLR

Flight info

Callsign OCN193
Flight time 9h 41m
Altitude 36000
Route SOBRA2L/18 SOBRA Y180 DIK UN857 TOLVU/N0463F350 DCT RAPOR DCT GIMER DCT ESTOC/N0460F370 DCT PON DCT DITAL DCT GODIX DCT DIDAK DCT AKEMO DCT GOPIN DCT TIVLU/M081F380 UN536 BUNAV DCT GONAN DCT 42N020W 39N025W 36N030W 32N040W/M081F400 28N050W 26N055W DCT KAVAX M525 SOCCO/N0464F400 M525 LEILA DCT ANTEX ANTEX2E
Aircraft A333/H-SDE2E3FGHIJ3J4J5LM1OP2RWXYZ/LB2D1

Departure

Time 2026-04-07 10:36
Airport Frankfurt Main Airport (EDDF)

Arrival

Time 2026-04-07 20:17
Airport Casa De Campo International Airport (MDLR)
Time Latitude Longitude Altitude Speed Heading
2026-04-07 09:43 50.04910 8.58064 365 ft 0 kts 339°
2026-04-07 09:44 50.04909 8.58063 365 ft 0 kts 339°
2026-04-07 10:15 50.04904 8.58066 363 ft 2 kts 339°
2026-04-07 10:15 50.04886 8.58077 367 ft 3 kts 339°
2026-04-07 10:15 50.04867 8.58088 365 ft 3 kts 339°
2026-04-07 10:16 50.04850 8.58098 364 ft 3 kts 334°
2026-04-07 10:16 50.04834 8.58114 369 ft 3 kts 308°
2026-04-07 10:16 50.04826 8.58139 364 ft 4 kts 270°
2026-04-07 10:16 50.04829 8.58169 369 ft 3 kts 248°
2026-04-07 10:17 50.04837 8.58197 367 ft 2 kts 248°
2026-04-07 10:17 50.04839 8.58204 370 ft 1 kts 250°
2026-04-07 10:20 50.04832 8.58176 369 ft 7 kts 250°
2026-04-07 10:20 50.04807 8.58070 365 ft 12 kts 250°
2026-04-07 10:20 50.04758 8.57967 369 ft 12 kts 207°
2026-04-07 10:21 50.04680 8.57976 367 ft 11 kts 161°
2026-04-07 10:21 50.04616 8.58013 364 ft 9 kts 160°
2026-04-07 10:21 50.04570 8.58026 372 ft 5 kts 191°
2026-04-07 10:21 50.04532 8.57968 374 ft 11 kts 239°
2026-04-07 10:22 50.04496 8.57823 372 ft 17 kts 250°
2026-04-07 10:22 50.04455 8.57652 373 ft 17 kts 249°
2026-04-07 10:22 50.04411 8.57469 370 ft 20 kts 250°
2026-04-07 10:22 50.04359 8.57251 371 ft 22 kts 250°
2026-04-07 10:23 50.04307 8.57030 368 ft 22 kts 250°
2026-04-07 10:23 50.04252 8.56800 370 ft 23 kts 249°
2026-04-07 10:23 50.04195 8.56563 367 ft 24 kts 249°
2026-04-07 10:23 50.04135 8.56313 358 ft 25 kts 250°
2026-04-07 10:24 50.04074 8.56056 364 ft 26 kts 250°
2026-04-07 10:24 50.04012 8.55796 363 ft 25 kts 249°
2026-04-07 10:24 50.03954 8.55552 357 ft 24 kts 250°
2026-04-07 10:24 50.03897 8.55314 361 ft 23 kts 249°
2026-04-07 10:25 50.03840 8.55077 354 ft 24 kts 250°
2026-04-07 10:25 50.03782 8.54834 358 ft 24 kts 250°
2026-04-07 10:25 50.03723 8.54586 353 ft 25 kts 249°
2026-04-07 10:25 50.03661 8.54330 351 ft 24 kts 250°
2026-04-07 10:26 50.03606 8.54096 354 ft 23 kts 250°
2026-04-07 10:26 50.03551 8.53866 347 ft 22 kts 249°
2026-04-07 10:26 50.03496 8.53636 348 ft 23 kts 250°
2026-04-07 10:26 50.03444 8.53420 353 ft 20 kts 249°
2026-04-07 10:27 50.03401 8.53240 335 ft 17 kts 249°
2026-04-07 10:27 50.03369 8.53108 336 ft 4 kts 249°
2026-04-07 10:27 50.03367 8.53101 337 ft 1 kts 250°
2026-04-07 10:27 50.03363 8.53082 337 ft 2 kts 250°
2026-04-07 10:28 50.03356 8.53053 335 ft 4 kts 250°
2026-04-07 10:28 50.03346 8.53010 335 ft 5 kts 250°
2026-04-07 10:28 50.03332 8.52952 334 ft 6 kts 250°
2026-04-07 10:28 50.03324 8.52921 335 ft 1 kts 250°
2026-04-07 10:29 50.03321 8.52906 335 ft 2 kts 250°
2026-04-07 10:29 50.03319 8.52898 334 ft 1 kts 250°
2026-04-07 10:29 50.03316 8.52885 334 ft 2 kts 250°
2026-04-07 10:29 50.03307 8.52849 336 ft 5 kts 250°
2026-04-07 10:30 50.03296 8.52801 335 ft 5 kts 250°
2026-04-07 10:30 50.03284 8.52753 333 ft 0 kts 249°
2026-04-07 10:30 50.03282 8.52744 334 ft 2 kts 249°
2026-04-07 10:31 50.03276 8.52720 333 ft 3 kts 249°
2026-04-07 10:31 50.03269 8.52690 336 ft 3 kts 249°
2026-04-07 10:31 50.03266 8.52681 337 ft 0 kts 249°
2026-04-07 10:31 50.03251 8.52629 336 ft 10 kts 240°
2026-04-07 10:32 50.03193 8.52596 336 ft 6 kts 180°
2026-04-07 10:32 50.03188 8.52596 336 ft 0 kts 180°
2026-04-07 10:35 50.03131 8.52596 339 ft 25 kts 180°
2026-04-07 10:35 50.02732 8.52600 336 ft 86 kts 180°
2026-04-07 10:35 50.01917 8.52606 338 ft 149 kts 180°
2026-04-07 10:35 50.00704 8.52657 630 ft 187 kts 175°
2026-04-07 10:36 49.99396 8.52720 1614 ft 190 kts 175°
2026-04-07 10:36 49.98034 8.52761 2190 ft 203 kts 175°
2026-04-07 10:36 49.96549 8.52863 2466 ft 224 kts 175°
2026-04-07 10:36 49.94934 8.52985 2891 ft 238 kts 175°
2026-04-07 10:37 49.93277 8.53101 3601 ft 240 kts 175°
2026-04-07 10:37 49.91620 8.53220 4287 ft 244 kts 175°
2026-04-07 10:37 49.89902 8.53344 4983 ft 249 kts 176°
2026-04-07 10:37 49.88151 8.53441 5654 ft 255 kts 181°
2026-04-07 10:38 49.86383 8.52971 6198 ft 264 kts 197°
2026-04-07 10:38 49.84596 8.52029 6680 ft 277 kts 201°
2026-04-07 10:38 49.82765 8.50971 7279 ft 283 kts 201°
2026-04-07 10:38 49.80906 8.49899 7996 ft 286 kts 201°
2026-04-07 10:39 49.79026 8.48807 8649 ft 291 kts 204°
2026-04-07 10:39 49.77297 8.47199 9341 ft 290 kts 226°
2026-04-07 10:39 49.76175 8.44655 10027 ft 287 kts 253°
2026-04-07 10:39 49.75910 8.42666 10449 ft 285 kts 271°
2026-04-07 10:40 49.76288 8.38559 10878 ft 302 kts 286°
2026-04-07 10:40 49.76837 8.35330 11157 ft 319 kts 287°
2026-04-07 10:40 49.77425 8.31930 11417 ft 335 kts 287°
2026-04-07 10:40 49.77821 8.29588 11644 ft 343 kts 286°
2026-04-07 10:41 49.78418 8.25974 12157 ft 350 kts 286°
2026-04-07 10:41 49.79025 8.22248 12743 ft 355 kts 286°
2026-04-07 10:41 49.79619 8.18567 13374 ft 358 kts 285°
2026-04-07 10:41 49.80224 8.14796 13999 ft 362 kts 285°
2026-04-07 10:42 49.80829 8.11006 14561 ft 365 kts 285°
2026-04-07 10:42 49.81438 8.07175 15146 ft 367 kts 285°
2026-04-07 10:42 49.82050 8.03317 15715 ft 370 kts 285°
2026-04-07 10:42 49.82663 7.99436 16284 ft 372 kts 285°
2026-04-07 10:43 49.83279 7.95524 16853 ft 375 kts 285°
2026-04-07 10:43 49.83897 7.91590 17412 ft 378 kts 285°
2026-04-07 10:43 49.84520 7.87613 17963 ft 380 kts 285°
2026-04-07 10:43 49.85138 7.83665 18511 ft 383 kts 285°
2026-04-07 10:44 49.85765 7.79641 18977 ft 386 kts 285°
2026-04-07 10:44 49.86400 7.75586 19427 ft 389 kts 285°
2026-04-07 10:44 49.87043 7.71500 19861 ft 391 kts 285°
2026-04-07 10:44 49.87687 7.67384 20300 ft 394 kts 285°
2026-04-07 10:45 49.88332 7.63235 20738 ft 397 kts 285°
2026-04-07 10:45 49.88977 7.59062 21168 ft 399 kts 285°
2026-04-07 10:45 49.89625 7.54855 21606 ft 402 kts 285°
2026-04-07 10:45 49.90276 7.50617 22043 ft 404 kts 285°
2026-04-07 10:46 49.90928 7.46363 22442 ft 407 kts 285°
2026-04-07 10:46 49.91582 7.42083 22865 ft 409 kts 285°
2026-04-07 10:46 49.92238 7.37780 23276 ft 412 kts 285°
2026-04-07 10:46 49.92898 7.33439 23666 ft 414 kts 285°
2026-04-07 10:47 49.93552 7.29124 24042 ft 416 kts 285°
2026-04-07 10:47 49.94216 7.24728 24335 ft 419 kts 284°
2026-04-07 10:47 49.94881 7.20320 24667 ft 421 kts 284°
2026-04-07 10:47 49.95549 7.15875 25011 ft 423 kts 284°
2026-04-07 10:48 49.96218 7.11417 25341 ft 425 kts 284°
2026-04-07 10:48 49.96888 7.06928 25669 ft 427 kts 284°
2026-04-07 10:48 49.97560 7.02422 25993 ft 429 kts 284°
2026-04-07 10:48 49.98233 6.97895 26303 ft 431 kts 284°
2026-04-07 10:49 49.98859 6.93324 26643 ft 433 kts 280°
2026-04-07 10:49 49.99136 6.88653 26980 ft 436 kts 272°
2026-04-07 10:49 49.99148 6.83925 27278 ft 439 kts 270°
2026-04-07 10:49 49.99067 6.79167 27570 ft 442 kts 269°
2026-04-07 10:50 49.98931 6.74390 27884 ft 444 kts 268°
2026-04-07 10:50 49.98770 6.69586 28191 ft 446 kts 268°
2026-04-07 10:50 49.98603 6.64767 28515 ft 448 kts 268°
2026-04-07 10:50 49.98361 6.59988 28812 ft 450 kts 263°
2026-04-07 10:51 49.97737 6.55201 29086 ft 454 kts 255°
2026-04-07 10:51 49.96703 6.50545 29375 ft 457 kts 250°
2026-04-07 10:51 49.95518 6.45945 29675 ft 459 kts 249°
2026-04-07 10:51 49.94260 6.41381 29976 ft 461 kts 248°
2026-04-07 10:52 49.92962 6.36815 30285 ft 463 kts 247°
2026-04-07 10:52 49.91649 6.32247 30585 ft 464 kts 247°
2026-04-07 10:52 49.90329 6.27669 30809 ft 466 kts 246°
2026-04-07 10:52 49.88979 6.23084 31061 ft 468 kts 247°
2026-04-07 10:53 49.87655 6.18474 31364 ft 467 kts 247°
2026-04-07 10:53 49.86246 6.13942 31696 ft 468 kts 242°
2026-04-07 10:53 49.84530 6.09660 32057 ft 467 kts 238°
2026-04-07 10:53 49.82717 6.05487 32395 ft 466 kts 236°
2026-04-07 10:54 49.80859 6.01366 32679 ft 466 kts 236°
2026-04-07 10:54 49.78980 5.97283 32953 ft 466 kts 236°
2026-04-07 10:54 49.77084 5.93201 33226 ft 467 kts 235°
2026-04-07 10:54 49.75280 5.89100 33511 ft 465 kts 240°
2026-04-07 10:55 49.73787 5.84667 33862 ft 462 kts 247°
2026-04-07 10:55 49.72572 5.80082 34208 ft 460 kts 249°
2026-04-07 10:55 49.71439 5.75461 34465 ft 459 kts 250°
2026-04-07 10:55 49.70355 5.70832 34754 ft 457 kts 250°
2026-04-07 10:56 49.69291 5.66200 34939 ft 458 kts 251°
2026-04-07 10:56 49.68227 5.61551 35121 ft 458 kts 251°
2026-04-07 10:56 49.67162 5.56926 35425 ft 456 kts 250°
2026-04-07 10:56 49.66092 5.52315 35617 ft 456 kts 250°
2026-04-07 10:57 49.65012 5.47693 35787 ft 456 kts 250°
2026-04-07 10:57 49.63932 5.43097 36072 ft 454 kts 250°
2026-04-07 10:57 49.62854 5.38525 36253 ft 454 kts 250°
2026-04-07 10:58 49.60822 5.29391 36281 ft 452 kts 250°
2026-04-07 10:58 49.58897 5.20193 36280 ft 451 kts 252°
2026-04-07 10:59 49.57208 5.10866 36278 ft 451 kts 254°
2026-04-07 10:59 49.55601 5.01518 36277 ft 452 kts 254°
2026-04-07 11:00 49.53965 4.92179 36278 ft 451 kts 253°
2026-04-07 11:00 49.52301 4.82860 36278 ft 452 kts 253°
2026-04-07 11:01 49.50616 4.73525 36277 ft 452 kts 252°
2026-04-07 11:01 49.48926 4.64215 36271 ft 452 kts 253°
2026-04-07 11:02 49.47239 4.54964 36271 ft 452 kts 252°
2026-04-07 11:02 49.45536 4.45664 36277 ft 452 kts 253°
2026-04-07 11:03 49.43824 4.36363 36265 ft 453 kts 252°
2026-04-07 11:03 49.42099 4.27044 36269 ft 454 kts 252°
2026-04-07 11:04 49.40365 4.17721 36268 ft 454 kts 252°
2026-04-07 11:04 49.38622 4.08395 36268 ft 454 kts 252°
2026-04-07 11:05 49.36873 3.99080 36268 ft 454 kts 252°
2026-04-07 11:05 49.35350 3.89656 36262 ft 455 kts 256°
2026-04-07 11:06 49.34032 3.80163 36263 ft 455 kts 256°
2026-04-07 11:06 49.32716 3.70679 36263 ft 455 kts 256°
2026-04-07 11:07 49.31362 3.61209 36262 ft 455 kts 256°
2026-04-07 11:07 49.29986 3.51758 36257 ft 454 kts 255°
2026-04-07 11:08 49.28607 3.42372 36254 ft 454 kts 255°
2026-04-07 11:08 49.27215 3.32941 36252 ft 454 kts 255°
2026-04-07 11:09 49.25817 3.23523 36253 ft 454 kts 255°
2026-04-07 11:09 49.24408 3.14093 36247 ft 454 kts 255°
2026-04-07 11:10 49.22993 3.04668 36247 ft 454 kts 254°
2026-04-07 11:10 49.21570 2.95250 36238 ft 454 kts 254°
2026-04-07 11:11 49.20142 2.85855 36238 ft 454 kts 254°
2026-04-07 11:11 49.18706 2.76469 36237 ft 454 kts 254°
2026-04-07 11:12 49.17259 2.67059 36237 ft 454 kts 254°
2026-04-07 11:12 49.15817 2.57741 36237 ft 453 kts 253°
2026-04-07 11:13 49.14361 2.48383 36236 ft 453 kts 253°
2026-04-07 11:13 49.12986 2.38989 36234 ft 454 kts 257°
2026-04-07 11:14 49.12017 2.29448 36215 ft 455 kts 259°
2026-04-07 11:14 49.11127 2.19889 36222 ft 455 kts 258°
2026-04-07 11:15 49.10244 2.10329 36211 ft 454 kts 258°
2026-04-07 11:15 49.08747 2.01119 36212 ft 448 kts 245°
2026-04-07 11:16 49.06316 1.92384 36206 ft 447 kts 243°
2026-04-07 11:16 49.03718 1.83806 36219 ft 445 kts 242°
2026-04-07 11:17 49.01101 1.75273 36234 ft 445 kts 242°
2026-04-07 11:17 48.98491 1.66725 36217 ft 444 kts 242°
2026-04-07 11:18 48.95892 1.58194 36213 ft 444 kts 242°
2026-04-07 11:18 48.93288 1.49665 36212 ft 444 kts 242°
2026-04-07 11:19 48.90693 1.41192 36211 ft 444 kts 242°
2026-04-07 11:19 48.88078 1.32689 36210 ft 444 kts 242°
2026-04-07 11:20 48.85454 1.24186 36211 ft 444 kts 242°
2026-04-07 11:20 48.82825 1.15699 36204 ft 444 kts 242°
2026-04-07 11:21 48.80189 1.07215 36204 ft 444 kts 242°
2026-04-07 11:21 48.77547 0.98741 36196 ft 444 kts 242°
2026-04-07 11:22 48.74878 0.90288 36194 ft 443 kts 239°
2026-04-07 11:22 48.71807 0.82281 36180 ft 442 kts 236°
2026-04-07 11:23 48.68602 0.74329 36183 ft 442 kts 236°
2026-04-07 11:23 48.65374 0.66418 36173 ft 442 kts 236°
2026-04-07 11:24 48.62139 0.58498 36170 ft 442 kts 236°
2026-04-07 11:24 48.58904 0.50583 36163 ft 443 kts 236°
2026-04-07 11:25 48.54042 0.38718 36162 ft 444 kts 236°
2026-04-07 11:25 48.50801 0.30841 36154 ft 445 kts 236°
2026-04-07 11:26 48.47530 0.22914 36154 ft 445 kts 236°
2026-04-07 11:26 48.44251 0.14989 36149 ft 445 kts 236°
2026-04-07 11:27 48.40965 0.07072 36149 ft 446 kts 236°
2026-04-07 11:27 48.37673 -0.00834 36155 ft 446 kts 236°
2026-04-07 11:28 48.34844 -0.07303 36144 ft 444 kts 233°
2026-04-07 11:28 48.30565 -0.15964 36140 ft 443 kts 231°
2026-04-07 11:29 48.27435 -0.22140 36140 ft 443 kts 231°
2026-04-07 11:29 48.24071 -0.29909 36140 ft 445 kts 237°
2026-04-07 11:30 48.20940 -0.37861 36134 ft 446 kts 238°
2026-04-07 11:30 48.17827 -0.45907 36133 ft 446 kts 238°
2026-04-07 11:31 48.14704 -0.53947 36131 ft 446 kts 238°
2026-04-07 11:31 48.11560 -0.61982 36130 ft 446 kts 238°
2026-04-07 11:32 48.08414 -0.69991 36130 ft 446 kts 238°
2026-04-07 11:32 48.05275 -0.77952 36130 ft 446 kts 238°
2026-04-07 11:33 48.02095 -0.85993 36135 ft 446 kts 237°
2026-04-07 11:33 47.98955 -0.93910 36114 ft 446 kts 237°
2026-04-07 11:34 47.95782 -1.01886 36105 ft 447 kts 237°
2026-04-07 11:34 47.92605 -1.09854 36105 ft 447 kts 237°
2026-04-07 11:35 47.89424 -1.17804 36107 ft 447 kts 237°
2026-04-07 11:35 47.86237 -1.25748 36097 ft 447 kts 237°
2026-04-07 11:36 47.83043 -1.33682 36085 ft 446 kts 237°
2026-04-07 11:36 47.79848 -1.41598 36096 ft 446 kts 237°
2026-04-07 11:37 47.76649 -1.49500 36094 ft 446 kts 237°
2026-04-07 11:37 47.73458 -1.57358 36069 ft 447 kts 237°
2026-04-07 11:38 47.70242 -1.65258 36082 ft 447 kts 237°
2026-04-07 11:38 47.67023 -1.73143 36073 ft 446 kts 236°
2026-04-07 11:39 47.63806 -1.80997 36081 ft 445 kts 236°
2026-04-07 11:39 47.60584 -1.88841 36072 ft 445 kts 236°
2026-04-07 11:40 47.57354 -1.96682 36074 ft 445 kts 236°
2026-04-07 11:40 47.54121 -2.04508 36085 ft 446 kts 236°
2026-04-07 11:41 47.50904 -2.12272 36074 ft 445 kts 236°
2026-04-07 11:41 47.47659 -2.20083 36071 ft 444 kts 236°
2026-04-07 11:42 47.44421 -2.27855 36075 ft 444 kts 236°
2026-04-07 11:42 47.41179 -2.35613 36071 ft 444 kts 236°
2026-04-07 11:43 47.37925 -2.43377 36069 ft 444 kts 236°
2026-04-07 11:43 47.34688 -2.51080 36079 ft 444 kts 236°
2026-04-07 11:44 47.31428 -2.58817 36068 ft 443 kts 236°
2026-04-07 11:44 47.28170 -2.66524 36067 ft 443 kts 235°
2026-04-07 11:45 47.24906 -2.74226 36065 ft 443 kts 235°
2026-04-07 11:45 47.21634 -2.81923 36059 ft 443 kts 235°
2026-04-07 11:46 47.18363 -2.89600 36076 ft 443 kts 235°
2026-04-07 11:46 47.15182 -2.97289 36062 ft 445 kts 240°
2026-04-07 11:47 47.13109 -3.05891 36062 ft 450 kts 252°
2026-04-07 11:47 47.11750 -3.14873 36053 ft 451 kts 255°
2026-04-07 11:48 47.10517 -3.23922 36055 ft 452 kts 255°
2026-04-07 11:48 47.09272 -3.32968 36057 ft 452 kts 255°
2026-04-07 11:49 47.07995 -3.41996 36052 ft 452 kts 254°
2026-04-07 11:49 47.06699 -3.51025 36048 ft 452 kts 254°
2026-04-07 11:50 47.05394 -3.60045 36051 ft 452 kts 254°
2026-04-07 11:50 47.04106 -3.69068 36049 ft 453 kts 256°
2026-04-07 11:51 47.03068 -3.78195 36040 ft 455 kts 257°
2026-04-07 11:51 47.02139 -3.87312 36043 ft 455 kts 257°
2026-04-07 11:52 47.01184 -3.96491 36043 ft 455 kts 257°
2026-04-07 11:52 47.00198 -4.05660 36037 ft 455 kts 257°
2026-04-07 11:53 46.99200 -4.14768 36039 ft 455 kts 257°
2026-04-07 11:53 46.98188 -4.23927 36047 ft 456 kts 256°
2026-04-07 11:54 46.97167 -4.33110 36044 ft 456 kts 256°
2026-04-07 11:54 46.96141 -4.42276 36044 ft 456 kts 256°
2026-04-07 11:55 46.95114 -4.51385 36044 ft 456 kts 256°
2026-04-07 11:55 46.94074 -4.60536 36044 ft 456 kts 256°
2026-04-07 11:56 46.93026 -4.69690 36045 ft 456 kts 256°
2026-04-07 11:56 46.91971 -4.78840 36041 ft 456 kts 256°
2026-04-07 11:57 46.90909 -4.87977 36042 ft 456 kts 256°
2026-04-07 11:57 46.89847 -4.97055 36043 ft 456 kts 256°
2026-04-07 11:58 46.88769 -5.06203 36042 ft 456 kts 256°
2026-04-07 11:58 46.87684 -5.15347 36040 ft 456 kts 256°
2026-04-07 11:59 46.86591 -5.24486 36037 ft 456 kts 256°
2026-04-07 11:59 46.85492 -5.33624 36049 ft 456 kts 255°
2026-04-07 12:00 46.84382 -5.42772 36038 ft 457 kts 255°
2026-04-07 12:00 46.83268 -5.51901 36033 ft 457 kts 255°
2026-04-07 12:01 46.82152 -5.60983 36035 ft 457 kts 255°
2026-04-07 12:01 46.81021 -5.70118 36034 ft 457 kts 255°
2026-04-07 12:02 46.79885 -5.79240 36028 ft 455 kts 255°
2026-04-07 12:02 46.78746 -5.88326 36026 ft 454 kts 255°
2026-04-07 12:03 46.77599 -5.97400 36026 ft 455 kts 255°
2026-04-07 12:03 46.76446 -6.06468 36026 ft 455 kts 255°
2026-04-07 12:04 46.75292 -6.15482 36028 ft 455 kts 255°
2026-04-07 12:04 46.74119 -6.24580 36023 ft 456 kts 255°
2026-04-07 12:05 46.72941 -6.33672 36023 ft 456 kts 255°
2026-04-07 12:05 46.71755 -6.42763 36020 ft 456 kts 255°
2026-04-07 12:06 46.70559 -6.51861 36035 ft 457 kts 255°
2026-04-07 12:06 46.69356 -6.60957 36017 ft 458 kts 255°
2026-04-07 12:07 46.68149 -6.70024 36014 ft 458 kts 255°
2026-04-07 12:07 46.66930 -6.79130 36014 ft 458 kts 255°
2026-04-07 12:08 46.65704 -6.88231 36006 ft 458 kts 255°
2026-04-07 12:08 46.64470 -6.97331 36009 ft 457 kts 254°
2026-04-07 12:09 46.63231 -7.06412 36012 ft 457 kts 254°
2026-04-07 12:09 46.61985 -7.15482 36007 ft 457 kts 254°
2026-04-07 12:10 46.60732 -7.24546 36004 ft 457 kts 254°
2026-04-07 12:10 46.59479 -7.33552 36003 ft 456 kts 253°
2026-04-07 12:11 46.58215 -7.42594 36004 ft 455 kts 253°
2026-04-07 12:11 46.56946 -7.51611 36001 ft 455 kts 253°
2026-04-07 12:12 46.55669 -7.60628 35996 ft 455 kts 253°
2026-04-07 12:12 46.54385 -7.69638 36015 ft 455 kts 253°
2026-04-07 12:13 46.53106 -7.78570 35993 ft 454 kts 253°
2026-04-07 12:13 46.51813 -7.87538 35993 ft 453 kts 253°
2026-04-07 12:14 46.50521 -7.96499 35993 ft 454 kts 254°
2026-04-07 12:14 46.50024 -8.05714 35993 ft 461 kts 263°
2026-04-07 12:15 46.49987 -8.15061 35991 ft 463 kts 264°
2026-04-07 12:15 46.50030 -8.24428 35991 ft 464 kts 264°
2026-04-07 12:16 46.50061 -8.33792 35990 ft 464 kts 264°
2026-04-07 12:16 46.50068 -8.43107 35988 ft 464 kts 264°
2026-04-07 12:17 46.50059 -8.52481 35990 ft 464 kts 264°
2026-04-07 12:17 46.50042 -8.61840 35988 ft 464 kts 264°
2026-04-07 12:18 46.50015 -8.69617 35987 ft 462 kts 262°
2026-04-07 12:18 46.48968 -8.78657 35985 ft 449 kts 247°
2026-04-07 12:19 46.46953 -8.87209 35982 ft 447 kts 244°
2026-04-07 12:19 46.44752 -8.95662 35980 ft 448 kts 243°
2026-04-07 12:20 46.42527 -9.04111 35977 ft 448 kts 243°
2026-04-07 12:20 46.40319 -9.12567 35976 ft 449 kts 243°
2026-04-07 12:21 46.38125 -9.20988 35977 ft 449 kts 243°
2026-04-07 12:21 46.35914 -9.29461 35981 ft 449 kts 243°
2026-04-07 12:22 46.33702 -9.37905 35979 ft 448 kts 243°
2026-04-07 12:22 46.31499 -9.46281 35960 ft 448 kts 243°
2026-04-07 12:23 46.29273 -9.54709 35977 ft 448 kts 243°
2026-04-07 12:23 46.27042 -9.63129 35989 ft 448 kts 242°
2026-04-07 12:24 46.24805 -9.71536 35967 ft 448 kts 242°
2026-04-07 12:24 46.22565 -9.79930 35960 ft 447 kts 242°
2026-04-07 12:25 46.20335 -9.88255 35963 ft 447 kts 242°
2026-04-07 12:25 46.18082 -9.96637 35963 ft 447 kts 242°
2026-04-07 12:26 46.15825 -10.05006 35967 ft 447 kts 242°
2026-04-07 12:26 46.13560 -10.13373 35957 ft 448 kts 242°
2026-04-07 12:27 46.11288 -10.21735 35960 ft 448 kts 242°
2026-04-07 12:27 46.09010 -10.30090 35955 ft 448 kts 242°
2026-04-07 12:28 46.06726 -10.38439 35967 ft 448 kts 241°
2026-04-07 12:29 46.03299 -10.50913 35952 ft 448 kts 241°
2026-04-07 12:29 46.00996 -10.59260 35946 ft 449 kts 241°
2026-04-07 12:30 45.98686 -10.67603 35941 ft 448 kts 241°
2026-04-07 12:30 45.96366 -10.75951 35952 ft 449 kts 241°
2026-04-07 12:31 45.94051 -10.84251 35943 ft 450 kts 241°
2026-04-07 12:31 45.91713 -10.92609 35944 ft 451 kts 241°
2026-04-07 12:32 45.89371 -11.00952 35937 ft 450 kts 241°
2026-04-07 12:32 45.87022 -11.09290 35936 ft 450 kts 241°
2026-04-07 12:33 45.84666 -11.17623 35937 ft 451 kts 241°
2026-04-07 12:33 45.82304 -11.25953 35938 ft 451 kts 241°
2026-04-07 12:34 45.79933 -11.34282 35938 ft 451 kts 241°
2026-04-07 12:34 45.77570 -11.42557 35938 ft 452 kts 240°
2026-04-07 12:35 45.75184 -11.50882 35942 ft 452 kts 241°
2026-04-07 12:35 45.72788 -11.59214 35921 ft 452 kts 241°
2026-04-07 12:36 45.70389 -11.67534 35937 ft 452 kts 241°
2026-04-07 12:36 45.67982 -11.75850 35937 ft 452 kts 241°
2026-04-07 12:37 45.65568 -11.84159 35934 ft 452 kts 242°
2026-04-07 12:37 45.63147 -11.92468 35928 ft 452 kts 242°
2026-04-07 12:38 45.60741 -12.00698 35927 ft 452 kts 242°
2026-04-07 12:38 45.58308 -12.08993 35929 ft 452 kts 242°
2026-04-07 12:39 45.55873 -12.17266 35924 ft 452 kts 242°
2026-04-07 12:39 45.53431 -12.25534 35926 ft 452 kts 241°
2026-04-07 12:40 45.50980 -12.33807 35930 ft 452 kts 241°
2026-04-07 12:40 45.48524 -12.42066 35926 ft 452 kts 241°
2026-04-07 12:41 45.46067 -12.50303 35922 ft 452 kts 241°
2026-04-07 12:41 45.43617 -12.58494 35924 ft 453 kts 241°
2026-04-07 12:42 45.41139 -12.66745 35922 ft 453 kts 241°
2026-04-07 12:42 45.38656 -12.74991 35919 ft 453 kts 241°
2026-04-07 12:43 45.36166 -12.83231 35923 ft 453 kts 241°
2026-04-07 12:43 45.33668 -12.91470 35926 ft 455 kts 241°
2026-04-07 12:44 45.31146 -12.99756 35924 ft 458 kts 241°
2026-04-07 12:44 45.28615 -13.08054 35926 ft 458 kts 241°
2026-04-07 12:45 45.26076 -13.16350 35923 ft 458 kts 241°
2026-04-07 12:45 45.23547 -13.24584 35930 ft 459 kts 242°
2026-04-07 12:46 45.20977 -13.32919 35923 ft 462 kts 242°
2026-04-07 12:46 45.18394 -13.41275 35936 ft 463 kts 242°
2026-04-07 12:47 45.15799 -13.49646 35933 ft 463 kts 242°
2026-04-07 12:47 45.13214 -13.57952 35936 ft 464 kts 242°
2026-04-07 12:48 45.10596 -13.66334 35939 ft 467 kts 243°
2026-04-07 12:48 45.07965 -13.74734 35936 ft 467 kts 242°
2026-04-07 12:49 45.05327 -13.83132 35944 ft 467 kts 242°
2026-04-07 12:49 45.02680 -13.91531 35963 ft 467 kts 242°
2026-04-07 12:50 44.99923 -13.99851 35958 ft 466 kts 237°
2026-04-07 12:50 44.96578 -14.07670 35960 ft 464 kts 234°
2026-04-07 12:51 44.93105 -14.15362 35959 ft 464 kts 233°
2026-04-07 12:51 44.89607 -14.23019 35977 ft 464 kts 232°
2026-04-07 12:52 44.86129 -14.30639 35973 ft 467 kts 235°
2026-04-07 12:52 44.82607 -14.38361 35975 ft 468 kts 233°
2026-04-07 12:53 44.79079 -14.46086 35979 ft 468 kts 233°
2026-04-07 12:53 44.75549 -14.53800 35974 ft 468 kts 234°
2026-04-07 12:54 44.72006 -14.61517 35985 ft 469 kts 236°
2026-04-07 12:54 44.68454 -14.69226 35990 ft 470 kts 236°
2026-04-07 12:55 44.64919 -14.76877 35982 ft 470 kts 236°
2026-04-07 12:55 44.61349 -14.84582 35995 ft 470 kts 236°
2026-04-07 12:56 44.57765 -14.92301 36012 ft 474 kts 237°
2026-04-07 12:56 44.54143 -15.00081 36005 ft 477 kts 237°
2026-04-07 12:57 44.50530 -15.07822 36004 ft 477 kts 237°
2026-04-07 12:57 44.46891 -15.15597 36011 ft 477 kts 237°
2026-04-07 12:58 44.43235 -15.23384 36009 ft 481 kts 238°
2026-04-07 12:58 44.39539 -15.31237 36010 ft 485 kts 237°
2026-04-07 12:59 44.35826 -15.39104 36014 ft 485 kts 238°
2026-04-07 12:59 44.32108 -15.46966 36029 ft 485 kts 238°
2026-04-07 13:00 44.28378 -15.54825 36020 ft 484 kts 238°
2026-04-07 13:00 44.24668 -15.62621 36027 ft 485 kts 238°
2026-04-07 13:01 44.20928 -15.70461 36029 ft 485 kts 238°
2026-04-07 13:01 44.17184 -15.78291 36031 ft 485 kts 238°
2026-04-07 13:02 44.13429 -15.86114 36036 ft 487 kts 238°
2026-04-07 13:02 44.09667 -15.93942 36045 ft 487 kts 239°
2026-04-07 13:03 44.05898 -16.01756 36040 ft 487 kts 238°
2026-04-07 13:03 44.02118 -16.09568 36045 ft 487 kts 239°
2026-04-07 13:04 43.98333 -16.17381 36059 ft 487 kts 240°
2026-04-07 13:04 43.94536 -16.25191 36061 ft 488 kts 239°
2026-04-07 13:05 43.90736 -16.32994 36071 ft 488 kts 239°
2026-04-07 13:05 43.86953 -16.40735 36074 ft 488 kts 239°
2026-04-07 13:06 43.83135 -16.48520 36074 ft 489 kts 240°
2026-04-07 13:06 43.79309 -16.56309 36084 ft 489 kts 239°
2026-04-07 13:07 43.75476 -16.64088 36096 ft 489 kts 240°
2026-04-07 13:07 43.72288 -16.70540 36073 ft 489 kts 240°
2026-04-07 13:08 43.68448 -16.78297 36108 ft 489 kts 240°
2026-04-07 13:08 43.64599 -16.86051 36105 ft 489 kts 240°
2026-04-07 13:09 43.60749 -16.93787 36116 ft 489 kts 240°
2026-04-07 13:09 43.56893 -17.01515 36113 ft 489 kts 240°
2026-04-07 13:10 43.53030 -17.09237 36124 ft 490 kts 240°
2026-04-07 13:10 43.49146 -17.16982 36124 ft 491 kts 240°
2026-04-07 13:11 43.45255 -17.24718 36133 ft 491 kts 240°
2026-04-07 13:11 43.41388 -17.32385 36132 ft 491 kts 240°
2026-04-07 13:12 43.37485 -17.40105 36117 ft 491 kts 241°
2026-04-07 13:12 43.33569 -17.47831 36149 ft 492 kts 241°
2026-04-07 13:13 43.29646 -17.55550 36149 ft 493 kts 241°
2026-04-07 13:13 43.25741 -17.63212 36159 ft 493 kts 241°
2026-04-07 13:14 43.21803 -17.70919 36159 ft 493 kts 241°
2026-04-07 13:14 43.17859 -17.78619 36164 ft 493 kts 242°
2026-04-07 13:15 43.13909 -17.86311 36169 ft 493 kts 242°
2026-04-07 13:15 43.09956 -17.93988 36172 ft 493 kts 242°
2026-04-07 13:16 43.06018 -18.01618 36178 ft 493 kts 242°
2026-04-07 13:16 43.02057 -18.09271 36149 ft 493 kts 242°
2026-04-07 13:17 42.98093 -18.16910 36189 ft 492 kts 243°
2026-04-07 13:17 42.94132 -18.24521 36188 ft 491 kts 243°
2026-04-07 13:18 42.90202 -18.32058 36201 ft 491 kts 243°
2026-04-07 13:18 42.86231 -18.39653 36199 ft 491 kts 243°
2026-04-07 13:19 42.82263 -18.47222 36201 ft 491 kts 244°
2026-04-07 13:19 42.78290 -18.54782 36211 ft 490 kts 244°
2026-04-07 13:20 42.74315 -18.62327 36210 ft 490 kts 244°
2026-04-07 13:20 42.70363 -18.69809 36209 ft 490 kts 244°
2026-04-07 13:21 42.66380 -18.77333 36216 ft 490 kts 244°
2026-04-07 13:21 42.62392 -18.84845 36224 ft 490 kts 244°
2026-04-07 13:22 42.58400 -18.92345 36225 ft 490 kts 244°
2026-04-07 13:22 42.54405 -18.99834 36237 ft 490 kts 244°
2026-04-07 13:23 42.50401 -19.07320 36238 ft 490 kts 244°
2026-04-07 13:23 42.46386 -19.14808 36229 ft 490 kts 244°
2026-04-07 13:24 42.42397 -19.22229 36241 ft 490 kts 244°
2026-04-07 13:24 42.38382 -19.29681 36252 ft 490 kts 244°
2026-04-07 13:25 42.34356 -19.37133 36251 ft 490 kts 244°
2026-04-07 13:25 42.30328 -19.44572 36260 ft 490 kts 244°
2026-04-07 13:26 42.26295 -19.51997 36256 ft 489 kts 244°
2026-04-07 13:26 42.22295 -19.59348 36265 ft 488 kts 244°
2026-04-07 13:27 42.18267 -19.66734 36277 ft 488 kts 244°
2026-04-07 13:27 42.14231 -19.74115 36274 ft 489 kts 244°
2026-04-07 13:28 42.10211 -19.81448 36261 ft 489 kts 244°
2026-04-07 13:28 42.06167 -19.88806 36281 ft 488 kts 244°
2026-04-07 13:29 42.02122 -19.96148 36284 ft 488 kts 244°
2026-04-07 13:29 41.98075 -20.03477 36287 ft 488 kts 244°
2026-04-07 13:30 41.94021 -20.10798 36298 ft 488 kts 244°
2026-04-07 13:30 41.89961 -20.18109 36294 ft 487 kts 244°
2026-04-07 13:31 41.85931 -20.25347 36303 ft 486 kts 244°
2026-04-07 13:31 41.81881 -20.32608 36303 ft 486 kts 244°
2026-04-07 13:32 41.77830 -20.39857 36307 ft 486 kts 244°
2026-04-07 13:32 41.73767 -20.47104 36308 ft 485 kts 244°
2026-04-07 13:33 41.69722 -20.54300 36314 ft 482 kts 244°
2026-04-07 13:33 41.63702 -20.64983 36324 ft 481 kts 244°
2026-04-07 13:34 41.59665 -20.72131 36328 ft 482 kts 244°
2026-04-07 13:34 41.55618 -20.79278 36330 ft 482 kts 244°
2026-04-07 13:35 41.51574 -20.86400 36330 ft 481 kts 244°
2026-04-07 13:35 41.47526 -20.93511 36341 ft 481 kts 244°
2026-04-07 13:36 41.43474 -21.00613 36336 ft 480 kts 244°
2026-04-07 13:36 41.39451 -21.07650 36341 ft 480 kts 244°
2026-04-07 13:37 41.35397 -21.14725 36298 ft 480 kts 243°
2026-04-07 13:37 41.31339 -21.21791 36350 ft 481 kts 243°
2026-04-07 13:38 41.27273 -21.28852 36356 ft 481 kts 243°
2026-04-07 13:38 41.23200 -21.35910 36355 ft 481 kts 243°
2026-04-07 13:39 41.19127 -21.42953 36356 ft 481 kts 243°
2026-04-07 13:39 41.15068 -21.49955 36335 ft 481 kts 243°
2026-04-07 13:40 41.10982 -21.56988 36365 ft 482 kts 243°
2026-04-07 13:40 41.06884 -21.64024 36366 ft 482 kts 243°
2026-04-07 13:41 41.02777 -21.71058 36369 ft 482 kts 243°
2026-04-07 13:41 40.98668 -21.78082 36369 ft 482 kts 243°
2026-04-07 13:42 40.94555 -21.85096 36374 ft 483 kts 242°
2026-04-07 13:42 40.90431 -21.92113 36373 ft 483 kts 242°
2026-04-07 13:43 40.86302 -21.99122 36366 ft 483 kts 242°
2026-04-07 13:43 40.82195 -22.06078 36376 ft 483 kts 242°
2026-04-07 13:44 40.78060 -22.13064 36382 ft 483 kts 242°
2026-04-07 13:44 40.73917 -22.20050 36390 ft 483 kts 242°
2026-04-07 13:45 40.69773 -22.27022 36390 ft 483 kts 242°
2026-04-07 13:45 40.65624 -22.33985 36392 ft 483 kts 242°
2026-04-07 13:46 40.61471 -22.40941 36395 ft 483 kts 242°
2026-04-07 13:46 40.57334 -22.47853 36387 ft 483 kts 241°
2026-04-07 13:47 40.53165 -22.54805 36398 ft 483 kts 241°
2026-04-07 13:47 40.48996 -22.61739 36406 ft 483 kts 241°
2026-04-07 13:48 40.44826 -22.68660 36403 ft 483 kts 241°
2026-04-07 13:48 40.40647 -22.75581 36411 ft 483 kts 241°
2026-04-07 13:49 40.36468 -22.82487 36409 ft 483 kts 240°
2026-04-07 13:49 40.32295 -22.89365 36410 ft 481 kts 240°
2026-04-07 13:50 40.28148 -22.96186 36411 ft 481 kts 240°
2026-04-07 13:50 40.23966 -23.03053 36421 ft 481 kts 240°
2026-04-07 13:51 40.19789 -23.09894 36420 ft 481 kts 240°
2026-04-07 13:51 40.15606 -23.16729 36411 ft 480 kts 240°
2026-04-07 13:52 40.11434 -23.23531 36416 ft 479 kts 240°
2026-04-07 13:52 40.07253 -23.30336 36430 ft 479 kts 240°
2026-04-07 13:53 40.03095 -23.37089 36437 ft 479 kts 240°
2026-04-07 13:53 39.98909 -23.43871 36407 ft 479 kts 239°
2026-04-07 13:54 39.94746 -23.50598 36414 ft 477 kts 239°
2026-04-07 13:54 39.90577 -23.57321 36432 ft 476 kts 239°
2026-04-07 13:55 39.86404 -23.64041 36440 ft 476 kts 239°
2026-04-07 13:55 39.82235 -23.70739 36438 ft 476 kts 239°
2026-04-07 13:56 39.78060 -23.77432 36428 ft 476 kts 239°
2026-04-07 13:56 39.73886 -23.84105 36439 ft 475 kts 239°
2026-04-07 13:57 39.69741 -23.90721 36444 ft 475 kts 239°
2026-04-07 13:57 39.65561 -23.97379 36442 ft 475 kts 239°
2026-04-07 13:58 39.61382 -24.04021 36461 ft 475 kts 239°
2026-04-07 13:58 39.57898 -24.09548 36449 ft 475 kts 238°
2026-04-07 13:59 39.53710 -24.16177 36452 ft 475 kts 238°
2026-04-07 13:59 39.49522 -24.22793 36455 ft 475 kts 238°
2026-04-07 14:00 39.45334 -24.29397 36456 ft 475 kts 238°
2026-04-07 14:00 39.41136 -24.36002 36457 ft 475 kts 238°
2026-04-07 14:01 39.36965 -24.42550 36460 ft 474 kts 238°
2026-04-07 14:01 39.32766 -24.49127 36462 ft 474 kts 238°
2026-04-07 14:02 39.28566 -24.55692 36464 ft 474 kts 237°
2026-04-07 14:02 39.24363 -24.62250 36465 ft 474 kts 237°
2026-04-07 14:03 39.20160 -24.68794 36469 ft 474 kts 237°
2026-04-07 14:03 39.15949 -24.75337 36467 ft 474 kts 237°
2026-04-07 14:04 39.11739 -24.81864 36477 ft 474 kts 237°
2026-04-07 14:04 39.07553 -24.88342 36476 ft 474 kts 237°
2026-04-07 14:05 39.03335 -24.94855 36478 ft 474 kts 237°
2026-04-07 14:05 38.99155 -25.01402 36480 ft 472 kts 239°
2026-04-07 14:06 38.95299 -25.08195 36484 ft 469 kts 241°
2026-04-07 14:06 38.91555 -25.15055 36484 ft 469 kts 241°
2026-04-07 14:07 38.87782 -25.21903 36485 ft 470 kts 240°
2026-04-07 14:07 38.83972 -25.28731 36489 ft 470 kts 240°
2026-04-07 14:08 38.80177 -25.35493 36489 ft 470 kts 240°
2026-04-07 14:08 38.76353 -25.42288 36492 ft 470 kts 240°
2026-04-07 14:09 38.72518 -25.49093 36492 ft 470 kts 240°
2026-04-07 14:09 38.68687 -25.55879 36495 ft 470 kts 240°
2026-04-07 14:10 38.64852 -25.62657 36495 ft 470 kts 240°
2026-04-07 14:10 38.61037 -25.69388 36498 ft 470 kts 239°
2026-04-07 14:11 38.57198 -25.76145 36497 ft 469 kts 239°
2026-04-07 14:11 38.53355 -25.82894 36506 ft 469 kts 239°
2026-04-07 14:12 38.49509 -25.89636 36506 ft 469 kts 239°
2026-04-07 14:12 38.45660 -25.96369 36492 ft 469 kts 238°
2026-04-07 14:13 38.41808 -26.03093 36505 ft 469 kts 238°
2026-04-07 14:13 38.37952 -26.09810 36501 ft 469 kts 238°
2026-04-07 14:14 38.34095 -26.16515 36512 ft 469 kts 238°
2026-04-07 14:14 38.30235 -26.23211 36498 ft 469 kts 238°
2026-04-07 14:15 38.26399 -26.29853 36508 ft 469 kts 238°
2026-04-07 14:15 38.22536 -26.36527 36517 ft 468 kts 238°
2026-04-07 14:16 38.18669 -26.43195 36518 ft 468 kts 237°
2026-04-07 14:16 38.14798 -26.49857 36510 ft 468 kts 237°
2026-04-07 14:17 38.10922 -26.56512 36508 ft 468 kts 237°
2026-04-07 14:17 38.07066 -26.63123 36525 ft 468 kts 237°
2026-04-07 14:18 38.03186 -26.69759 36524 ft 468 kts 237°
2026-04-07 14:18 37.99298 -26.76394 36526 ft 468 kts 237°
2026-04-07 14:19 37.95404 -26.83026 36527 ft 468 kts 237°
2026-04-07 14:19 37.91508 -26.89652 36528 ft 468 kts 237°
2026-04-07 14:20 37.87633 -26.96226 36529 ft 469 kts 236°
2026-04-07 14:20 37.83723 -27.02847 36533 ft 469 kts 236°
2026-04-07 14:21 37.79810 -27.09458 36533 ft 469 kts 236°
2026-04-07 14:21 37.75894 -27.16062 36539 ft 469 kts 236°
2026-04-07 14:22 37.71976 -27.22656 36535 ft 470 kts 236°
2026-04-07 14:22 37.68046 -27.29259 36537 ft 470 kts 236°
2026-04-07 14:23 37.64108 -27.35859 36542 ft 470 kts 236°
2026-04-07 14:23 37.60193 -27.42410 36542 ft 470 kts 236°
2026-04-07 14:24 37.56251 -27.48992 36534 ft 470 kts 236°
2026-04-07 14:24 37.52303 -27.55572 36543 ft 471 kts 236°
2026-04-07 14:25 37.48344 -27.62156 36545 ft 471 kts 236°
2026-04-07 14:25 37.44384 -27.68730 36545 ft 471 kts 236°
2026-04-07 14:26 37.40417 -27.75301 36545 ft 471 kts 236°
2026-04-07 14:26 37.36478 -27.81814 36547 ft 472 kts 236°
2026-04-07 14:27 37.32497 -27.88382 36552 ft 472 kts 236°
2026-04-07 14:27 37.28512 -27.94946 36549 ft 472 kts 236°
2026-04-07 14:28 37.24526 -28.01496 36551 ft 472 kts 236°
2026-04-07 14:28 37.20537 -28.08040 36546 ft 472 kts 236°
2026-04-07 14:29 37.16545 -28.14575 36554 ft 472 kts 236°
2026-04-07 14:29 37.12569 -28.21073 36555 ft 472 kts 236°
2026-04-07 14:30 37.08571 -28.27591 36554 ft 472 kts 236°
2026-04-07 14:30 37.04557 -28.34125 36561 ft 472 kts 236°
2026-04-07 14:31 37.00551 -28.40632 36558 ft 472 kts 236°
2026-04-07 14:31 36.96539 -28.47138 36558 ft 472 kts 235°
2026-04-07 14:32 36.92523 -28.53636 36557 ft 472 kts 235°
2026-04-07 14:32 36.88525 -28.60093 36562 ft 472 kts 235°
2026-04-07 14:33 36.84502 -28.66578 36551 ft 472 kts 235°
2026-04-07 14:33 36.80471 -28.73063 36560 ft 472 kts 236°
2026-04-07 14:34 36.76441 -28.79535 36568 ft 472 kts 235°
2026-04-07 14:34 36.72409 -28.85997 36568 ft 472 kts 235°
2026-04-07 14:35 36.68373 -28.92453 36568 ft 472 kts 235°
2026-04-07 14:35 36.64355 -28.98867 36565 ft 472 kts 236°
2026-04-07 14:36 36.60314 -29.05306 36571 ft 472 kts 235°
2026-04-07 14:36 36.56266 -29.11745 36570 ft 472 kts 235°
2026-04-07 14:37 36.52220 -29.18169 36573 ft 472 kts 235°
2026-04-07 14:37 36.48168 -29.24587 36573 ft 472 kts 235°
2026-04-07 14:38 36.44108 -29.31008 36576 ft 472 kts 236°
2026-04-07 14:38 36.40048 -29.37417 36575 ft 472 kts 236°
2026-04-07 14:39 36.33958 -29.47008 36576 ft 472 kts 236°
2026-04-07 14:40 36.29920 -29.53351 36576 ft 472 kts 236°
2026-04-07 14:40 36.25853 -29.59729 36575 ft 471 kts 236°
2026-04-07 14:41 36.21778 -29.66107 36575 ft 471 kts 236°
2026-04-07 14:41 36.17707 -29.72467 36579 ft 471 kts 236°
2026-04-07 14:42 36.13631 -29.78823 36578 ft 471 kts 236°
2026-04-07 14:42 36.09550 -29.85174 36581 ft 471 kts 236°
2026-04-07 14:43 36.05476 -29.91503 36578 ft 470 kts 236°
2026-04-07 14:43 36.01458 -29.97803 36582 ft 467 kts 239°
2026-04-07 14:44 35.98379 -30.04759 36584 ft 460 kts 250°
2026-04-07 14:44 35.95823 -30.11987 36570 ft 459 kts 252°
2026-04-07 14:45 35.93364 -30.19246 36585 ft 457 kts 252°
2026-04-07 14:45 35.90906 -30.26475 36585 ft 456 kts 252°
2026-04-07 14:46 35.88431 -30.33682 36590 ft 456 kts 252°
2026-04-07 14:46 35.85950 -30.40855 36566 ft 456 kts 252°
2026-04-07 14:47 35.83460 -30.48032 36583 ft 454 kts 252°
2026-04-07 14:47 35.80970 -30.55194 36582 ft 454 kts 252°
2026-04-07 14:48 35.78484 -30.62336 36583 ft 454 kts 252°
2026-04-07 14:48 35.75991 -30.69480 36582 ft 454 kts 252°
2026-04-07 14:49 35.73919 -30.75403 36589 ft 453 kts 252°
2026-04-07 14:49 35.71015 -30.83684 36589 ft 453 kts 252°
2026-04-07 14:50 35.68938 -30.89596 36589 ft 453 kts 252°
2026-04-07 14:50 35.66435 -30.96703 36584 ft 453 kts 252°
2026-04-07 14:51 35.63927 -31.03808 36589 ft 452 kts 252°
2026-04-07 14:51 35.61421 -31.10890 36589 ft 451 kts 252°
2026-04-07 14:52 35.58912 -31.17966 36589 ft 451 kts 252°
2026-04-07 14:52 35.56397 -31.25045 36589 ft 452 kts 252°
2026-04-07 14:53 35.53878 -31.32117 36592 ft 452 kts 252°
2026-04-07 14:53 35.51367 -31.39149 36591 ft 452 kts 252°
2026-04-07 14:54 35.48841 -31.46210 36592 ft 452 kts 252°
2026-04-07 14:54 35.46310 -31.53266 36579 ft 452 kts 251°
2026-04-07 14:55 35.43777 -31.60316 36591 ft 451 kts 251°
2026-04-07 14:55 35.41243 -31.67347 36591 ft 451 kts 251°
2026-04-07 14:56 35.38703 -31.74383 36591 ft 451 kts 251°
2026-04-07 14:56 35.36178 -31.81364 36587 ft 451 kts 251°
2026-04-07 14:57 35.33633 -31.88381 36595 ft 451 kts 251°
2026-04-07 14:57 35.31083 -31.95395 36594 ft 450 kts 251°
2026-04-07 14:58 35.28532 -32.02400 36597 ft 450 kts 251°
2026-04-07 14:58 35.26004 -32.09312 36586 ft 439 kts 250°
2026-04-07 14:59 35.23517 -32.16108 36594 ft 437 kts 250°
2026-04-07 14:59 35.21039 -32.22875 36594 ft 437 kts 250°
2026-04-07 15:00 35.18548 -32.29659 36597 ft 437 kts 250°
2026-04-07 15:00 35.16057 -32.36426 36591 ft 437 kts 250°
2026-04-07 15:01 35.13575 -32.43154 36597 ft 437 kts 250°
2026-04-07 15:01 35.11069 -32.49928 36594 ft 437 kts 250°
2026-04-07 15:02 35.08562 -32.56693 36597 ft 437 kts 250°
2026-04-07 15:02 35.06054 -32.63450 36590 ft 437 kts 249°
2026-04-07 15:03 35.03558 -32.70158 36591 ft 437 kts 249°
2026-04-07 15:03 35.01042 -32.76904 36591 ft 437 kts 249°
2026-04-07 15:04 34.98518 -32.83659 36592 ft 437 kts 249°
2026-04-07 15:04 34.95992 -32.90404 36602 ft 437 kts 248°
2026-04-07 15:05 34.93478 -32.97105 36598 ft 437 kts 248°
2026-04-07 15:05 34.90945 -33.03840 36598 ft 437 kts 248°
2026-04-07 15:06 34.88409 -33.10568 36597 ft 437 kts 248°
2026-04-07 15:06 34.85868 -33.17299 36590 ft 437 kts 248°
2026-04-07 15:07 34.83327 -33.24017 36594 ft 437 kts 248°
2026-04-07 15:07 34.80782 -33.30726 36586 ft 437 kts 248°
2026-04-07 15:08 34.78233 -33.37436 36590 ft 437 kts 248°
2026-04-07 15:08 34.75678 -33.44146 36582 ft 436 kts 248°
2026-04-07 15:09 34.73140 -33.50800 36587 ft 436 kts 248°
2026-04-07 15:09 34.70582 -33.57491 36586 ft 436 kts 247°
2026-04-07 15:10 34.68022 -33.64172 36592 ft 436 kts 247°
2026-04-07 15:10 34.65458 -33.70853 36581 ft 436 kts 247°
2026-04-07 15:11 34.62904 -33.77493 36588 ft 435 kts 247°
2026-04-07 15:11 34.60337 -33.84152 36590 ft 435 kts 247°
2026-04-07 15:12 34.57765 -33.90812 36587 ft 435 kts 247°
2026-04-07 15:12 34.55189 -33.97469 36585 ft 435 kts 247°
2026-04-07 15:13 34.52612 -34.04116 36585 ft 435 kts 247°
2026-04-07 15:13 34.50045 -34.10723 36590 ft 435 kts 247°
2026-04-07 15:14 34.47463 -34.17355 36591 ft 435 kts 247°
2026-04-07 15:14 34.44872 -34.23997 36584 ft 435 kts 246°
2026-04-07 15:15 34.42285 -34.30613 36586 ft 434 kts 246°
2026-04-07 15:15 34.39698 -34.37218 36585 ft 434 kts 246°
2026-04-07 15:16 34.37106 -34.43824 36586 ft 434 kts 246°
2026-04-07 15:16 34.34528 -34.50380 36586 ft 433 kts 246°
2026-04-07 15:17 34.31940 -34.56949 36585 ft 432 kts 246°
2026-04-07 15:17 34.29348 -34.63515 36580 ft 432 kts 246°
2026-04-07 15:18 34.26754 -34.70073 36581 ft 432 kts 246°
2026-04-07 15:18 34.24157 -34.76625 36581 ft 431 kts 246°
2026-04-07 15:19 34.21564 -34.83154 36581 ft 430 kts 246°
2026-04-07 15:19 34.18976 -34.89658 36581 ft 430 kts 246°
2026-04-07 15:20 34.16385 -34.96160 36581 ft 430 kts 246°
2026-04-07 15:20 34.13802 -35.02626 36581 ft 429 kts 246°
2026-04-07 15:21 34.11207 -35.09110 36577 ft 428 kts 246°
2026-04-07 15:21 34.08610 -35.15587 36580 ft 428 kts 246°
2026-04-07 15:22 34.06015 -35.22048 36581 ft 428 kts 246°
2026-04-07 15:22 34.03414 -35.28509 36578 ft 428 kts 246°
2026-04-07 15:23 34.00816 -35.34952 36577 ft 427 kts 246°
2026-04-07 15:23 33.98214 -35.41391 36575 ft 427 kts 246°
2026-04-07 15:24 33.95612 -35.47819 36576 ft 427 kts 246°
2026-04-07 15:24 33.93024 -35.54201 36576 ft 426 kts 245°
2026-04-07 15:25 33.90417 -35.60616 36573 ft 426 kts 245°
2026-04-07 15:25 33.87809 -35.67022 36576 ft 426 kts 245°
2026-04-07 15:26 33.85198 -35.73424 36576 ft 426 kts 245°
2026-04-07 15:26 33.82586 -35.79817 36573 ft 426 kts 245°
2026-04-07 15:27 33.79964 -35.86222 36573 ft 426 kts 245°
2026-04-07 15:27 33.77339 -35.92621 36570 ft 426 kts 245°
2026-04-07 15:28 33.74730 -35.98968 36570 ft 426 kts 245°
2026-04-07 15:28 33.72096 -36.05368 36573 ft 427 kts 245°
2026-04-07 15:29 33.69462 -36.11753 36570 ft 427 kts 245°
2026-04-07 15:29 33.66824 -36.18136 36570 ft 427 kts 245°
2026-04-07 15:30 33.64181 -36.24520 36571 ft 427 kts 245°
2026-04-07 15:30 33.61537 -36.30895 36570 ft 427 kts 244°
2026-04-07 15:31 33.58885 -36.37278 36571 ft 427 kts 244°
2026-04-07 15:31 33.56248 -36.43611 36567 ft 427 kts 244°
2026-04-07 15:32 33.53590 -36.49984 36563 ft 427 kts 244°
2026-04-07 15:32 33.50932 -36.56345 36565 ft 427 kts 244°
2026-04-07 15:33 33.48265 -36.62717 36562 ft 427 kts 244°
2026-04-07 15:33 33.45599 -36.69074 36562 ft 427 kts 244°
2026-04-07 15:34 33.42929 -36.75429 36559 ft 427 kts 244°
2026-04-07 15:34 33.40271 -36.81743 36562 ft 427 kts 244°
2026-04-07 15:35 33.37596 -36.88088 36560 ft 427 kts 244°
2026-04-07 15:35 33.34916 -36.94432 36559 ft 427 kts 244°
2026-04-07 15:36 33.32230 -37.00778 36564 ft 427 kts 244°
2026-04-07 15:36 33.29548 -37.07104 36562 ft 427 kts 244°
2026-04-07 15:37 33.26859 -37.13434 36562 ft 427 kts 244°
2026-04-07 15:37 33.24168 -37.19758 36557 ft 427 kts 244°
2026-04-07 15:38 33.21470 -37.26088 36557 ft 427 kts 243°
2026-04-07 15:38 33.18789 -37.32364 36560 ft 426 kts 243°
2026-04-07 15:39 33.16088 -37.38678 36560 ft 426 kts 243°
2026-04-07 15:39 33.13842 -37.43919 36557 ft 426 kts 243°
2026-04-07 15:40 33.11132 -37.50233 36555 ft 426 kts 243°
2026-04-07 15:40 33.08428 -37.56521 36556 ft 426 kts 243°
2026-04-07 15:41 33.05721 -37.62805 36551 ft 426 kts 243°
2026-04-07 15:41 33.03010 -37.69087 36551 ft 426 kts 243°
2026-04-07 15:42 33.00310 -37.75333 36551 ft 426 kts 243°
2026-04-07 15:42 32.96238 -37.84733 36549 ft 426 kts 243°
2026-04-07 15:43 32.93519 -37.90994 36548 ft 426 kts 243°
2026-04-07 15:43 32.90797 -37.97252 36551 ft 426 kts 243°
2026-04-07 15:44 32.88072 -38.03506 36546 ft 425 kts 243°
2026-04-07 15:44 32.85351 -38.09739 36546 ft 425 kts 243°
2026-04-07 15:45 32.82634 -38.15954 36545 ft 425 kts 243°
2026-04-07 15:45 32.79901 -38.22192 36546 ft 425 kts 243°
2026-04-07 15:46 32.77168 -38.28422 36546 ft 425 kts 243°
2026-04-07 15:46 32.74433 -38.34644 36538 ft 425 kts 243°
2026-04-07 15:47 32.71695 -38.40861 36543 ft 425 kts 243°
2026-04-07 15:47 32.68956 -38.47070 36543 ft 425 kts 242°
2026-04-07 15:48 32.66228 -38.53245 36543 ft 424 kts 242°
2026-04-07 15:48 32.63481 -38.59451 36540 ft 424 kts 242°
2026-04-07 15:49 32.60731 -38.65654 36541 ft 424 kts 242°
2026-04-07 15:49 32.57982 -38.71843 36540 ft 424 kts 242°
2026-04-07 15:50 32.55230 -38.78028 36540 ft 424 kts 242°
2026-04-07 15:50 32.52473 -38.84215 36541 ft 424 kts 242°
2026-04-07 15:51 32.49729 -38.90361 36536 ft 424 kts 242°
2026-04-07 15:51 32.46968 -38.96536 36535 ft 424 kts 242°
2026-04-07 15:52 32.44206 -39.02702 36534 ft 424 kts 242°
2026-04-07 15:52 32.41435 -39.08877 36535 ft 424 kts 242°
2026-04-07 15:53 32.38664 -39.15042 36535 ft 424 kts 242°
2026-04-07 15:53 32.35888 -39.21207 36535 ft 424 kts 242°
2026-04-07 15:54 32.33110 -39.27368 36533 ft 424 kts 242°
2026-04-07 15:54 32.30344 -39.33490 36532 ft 424 kts 242°
2026-04-07 15:55 32.27560 -39.39641 36535 ft 424 kts 242°
2026-04-07 15:55 32.24772 -39.45793 36532 ft 424 kts 242°
2026-04-07 15:56 32.21978 -39.51948 36532 ft 425 kts 242°
2026-04-07 15:56 32.19181 -39.58097 36532 ft 425 kts 242°
2026-04-07 15:57 32.16402 -39.64196 36532 ft 424 kts 242°
2026-04-07 15:57 32.13602 -39.70332 36533 ft 424 kts 242°
2026-04-07 15:58 32.10798 -39.76467 36530 ft 424 kts 242°
2026-04-07 15:58 32.07996 -39.82587 36529 ft 424 kts 242°
2026-04-07 15:59 32.05190 -39.88705 36530 ft 424 kts 242°
2026-04-07 15:59 32.02400 -39.94780 36522 ft 424 kts 242°
2026-04-07 16:00 31.99723 -40.00971 36523 ft 424 kts 246°
2026-04-07 16:00 31.97419 -40.07365 36524 ft 424 kts 248°
2026-04-07 16:01 31.95185 -40.13800 36522 ft 424 kts 248°
2026-04-07 16:01 31.92961 -40.20227 36522 ft 424 kts 248°
2026-04-07 16:02 31.90726 -40.26652 36519 ft 424 kts 248°
2026-04-07 16:02 31.88495 -40.33037 36522 ft 424 kts 248°
2026-04-07 16:03 31.86243 -40.39464 36522 ft 424 kts 248°
2026-04-07 16:03 31.83989 -40.45885 36521 ft 424 kts 248°
2026-04-07 16:04 31.81744 -40.52269 36522 ft 424 kts 248°
2026-04-07 16:04 31.79483 -40.58685 36522 ft 425 kts 248°
2026-04-07 16:05 31.77218 -40.65102 36522 ft 425 kts 248°
2026-04-07 16:05 31.74953 -40.71506 36519 ft 425 kts 248°
2026-04-07 16:06 31.72679 -40.77922 36521 ft 425 kts 248°
2026-04-07 16:06 31.70405 -40.84329 36521 ft 425 kts 248°
2026-04-07 16:07 31.68128 -40.90730 36524 ft 425 kts 248°
2026-04-07 16:07 31.65858 -40.97099 36520 ft 425 kts 248°
2026-04-07 16:08 31.63576 -41.03490 36521 ft 425 kts 248°
2026-04-07 16:08 31.61286 -41.09892 36517 ft 425 kts 248°
2026-04-07 16:09 31.58995 -41.16285 36517 ft 425 kts 248°
2026-04-07 16:09 31.56712 -41.22641 36514 ft 425 kts 248°
2026-04-07 16:10 31.54413 -41.29034 36515 ft 425 kts 248°
2026-04-07 16:10 31.52113 -41.35415 36512 ft 425 kts 248°
2026-04-07 16:11 31.49812 -41.41788 36513 ft 425 kts 248°
2026-04-07 16:11 31.47504 -41.48166 36510 ft 425 kts 248°
2026-04-07 16:12 31.45209 -41.54499 36511 ft 425 kts 248°
2026-04-07 16:12 31.42900 -41.60859 36506 ft 424 kts 248°
2026-04-07 16:13 31.40583 -41.67228 36510 ft 424 kts 248°
2026-04-07 16:13 31.38270 -41.73575 36506 ft 424 kts 248°
2026-04-07 16:14 31.35968 -41.79880 36502 ft 424 kts 248°
2026-04-07 16:14 31.33648 -41.86220 36505 ft 423 kts 248°
2026-04-07 16:15 31.31328 -41.92552 36506 ft 423 kts 247°
2026-04-07 16:15 31.29005 -41.98878 36502 ft 423 kts 248°
2026-04-07 16:16 31.26681 -42.05196 36504 ft 422 kts 248°
2026-04-07 16:16 31.24358 -42.11501 36504 ft 422 kts 248°
2026-04-07 16:17 31.22048 -42.17759 36501 ft 422 kts 248°
2026-04-07 16:17 31.19718 -42.24061 36500 ft 422 kts 248°
2026-04-07 16:18 31.17389 -42.30346 36498 ft 421 kts 248°
2026-04-07 16:18 31.15059 -42.36623 36493 ft 421 kts 248°
2026-04-07 16:19 31.12730 -42.42886 36493 ft 420 kts 248°
2026-04-07 16:19 31.10400 -42.49141 36491 ft 420 kts 248°
2026-04-07 16:20 31.08081 -42.55358 36491 ft 420 kts 248°
2026-04-07 16:20 31.05742 -42.61615 36486 ft 420 kts 248°
2026-04-07 16:21 31.03403 -42.67861 36488 ft 420 kts 248°
2026-04-07 16:21 31.01060 -42.74107 36488 ft 420 kts 248°
2026-04-07 16:22 30.98714 -42.80347 36487 ft 420 kts 248°
2026-04-07 16:22 30.96367 -42.86583 36481 ft 420 kts 248°
2026-04-07 16:23 30.94012 -42.92827 36487 ft 421 kts 248°
2026-04-07 16:23 30.91654 -42.99068 36484 ft 421 kts 248°
2026-04-07 16:24 30.89308 -43.05267 36482 ft 421 kts 248°
2026-04-07 16:24 30.86946 -43.11495 36481 ft 420 kts 248°
2026-04-07 16:25 30.84583 -43.17719 36479 ft 420 kts 247°
2026-04-07 16:25 30.82215 -43.23943 36476 ft 420 kts 247°
2026-04-07 16:26 30.79857 -43.30129 36475 ft 420 kts 247°
2026-04-07 16:26 30.77483 -43.36348 36474 ft 420 kts 247°
2026-04-07 16:27 30.75105 -43.42563 36476 ft 420 kts 247°
2026-04-07 16:27 30.72726 -43.48775 36473 ft 421 kts 247°
2026-04-07 16:28 30.70341 -43.54988 36473 ft 421 kts 247°
2026-04-07 16:28 30.67954 -43.61197 36473 ft 421 kts 247°
2026-04-07 16:29 30.65580 -43.67361 36470 ft 421 kts 247°
2026-04-07 16:29 30.63187 -43.73563 36471 ft 421 kts 247°
2026-04-07 16:30 30.60790 -43.79767 36468 ft 421 kts 247°
2026-04-07 16:30 30.58797 -43.84914 36464 ft 421 kts 247°
2026-04-07 16:31 30.56395 -43.91110 36464 ft 421 kts 247°
2026-04-07 16:31 30.53991 -43.97302 36461 ft 421 kts 247°
2026-04-07 16:32 30.51583 -44.03493 36458 ft 421 kts 246°
2026-04-07 16:32 30.49171 -44.09681 36459 ft 421 kts 246°
2026-04-07 16:33 30.46773 -44.15825 36467 ft 421 kts 246°
2026-04-07 16:33 30.44359 -44.21997 36459 ft 419 kts 246°
2026-04-07 16:34 30.41948 -44.28155 36460 ft 419 kts 246°
2026-04-07 16:34 30.39531 -44.34315 36456 ft 420 kts 246°
2026-04-07 16:35 30.37114 -44.40466 36456 ft 420 kts 246°
2026-04-07 16:35 30.34705 -44.46586 36456 ft 420 kts 246°
2026-04-07 16:36 30.32279 -44.52738 36458 ft 420 kts 246°
2026-04-07 16:36 30.29851 -44.58886 36457 ft 420 kts 246°
2026-04-07 16:37 30.27421 -44.65028 36455 ft 420 kts 246°
2026-04-07 16:37 30.24986 -44.71171 36452 ft 420 kts 246°
2026-04-07 16:38 30.22548 -44.77313 36449 ft 420 kts 246°
2026-04-07 16:38 30.20124 -44.83410 36449 ft 420 kts 246°
2026-04-07 16:39 30.17684 -44.89537 36445 ft 420 kts 246°
2026-04-07 16:39 30.15237 -44.95671 36446 ft 420 kts 246°
2026-04-07 16:40 30.12787 -45.01802 36448 ft 420 kts 245°
2026-04-07 16:40 30.10337 -45.07922 36446 ft 420 kts 245°
2026-04-07 16:41 30.07883 -45.14044 36445 ft 420 kts 245°
2026-04-07 16:41 30.05425 -45.20163 36445 ft 420 kts 245°
2026-04-07 16:42 30.02982 -45.26237 36448 ft 419 kts 245°
2026-04-07 16:42 30.00522 -45.32343 36441 ft 419 kts 245°
2026-04-07 16:43 29.98057 -45.38451 36445 ft 420 kts 245°
2026-04-07 16:43 29.95590 -45.44552 36444 ft 419 kts 245°
2026-04-07 16:44 29.93126 -45.50638 36437 ft 419 kts 245°
2026-04-07 16:44 29.90662 -45.56715 36437 ft 419 kts 245°
2026-04-07 16:45 29.88189 -45.62802 36437 ft 419 kts 245°
2026-04-07 16:45 29.85717 -45.68876 36435 ft 418 kts 245°
2026-04-07 16:46 29.83244 -45.74945 36435 ft 418 kts 245°
2026-04-07 16:46 29.80768 -45.81012 36432 ft 418 kts 245°
2026-04-07 16:47 29.78290 -45.87073 36430 ft 418 kts 245°
2026-04-07 16:47 29.75821 -45.93100 36430 ft 418 kts 245°
2026-04-07 16:48 29.73333 -45.99166 36434 ft 418 kts 245°
2026-04-07 16:49 29.69604 -46.08240 36430 ft 418 kts 245°
2026-04-07 16:49 29.67132 -46.14242 36430 ft 418 kts 245°
2026-04-07 16:50 29.64642 -46.20281 36432 ft 418 kts 245°
2026-04-07 16:50 29.62147 -46.26320 36428 ft 417 kts 245°
2026-04-07 16:51 29.59651 -46.32351 36427 ft 417 kts 244°
2026-04-07 16:51 29.57172 -46.38333 36429 ft 417 kts 244°
2026-04-07 16:52 29.54670 -46.44360 36425 ft 417 kts 244°
2026-04-07 16:52 29.52170 -46.50375 36424 ft 417 kts 244°
2026-04-07 16:53 29.49667 -46.56386 36425 ft 418 kts 244°
2026-04-07 16:53 29.47156 -46.62407 36419 ft 418 kts 244°
2026-04-07 16:54 29.44641 -46.68426 36414 ft 418 kts 244°
2026-04-07 16:54 29.42128 -46.74434 36417 ft 418 kts 244°
2026-04-07 16:55 29.39609 -46.80444 36413 ft 418 kts 244°
2026-04-07 16:55 29.37085 -46.86460 36414 ft 419 kts 244°
2026-04-07 16:56 29.34555 -46.92477 36415 ft 419 kts 244°
2026-04-07 16:56 29.32038 -46.98457 36416 ft 419 kts 244°
2026-04-07 16:57 29.29503 -47.04470 36409 ft 419 kts 244°
2026-04-07 16:57 29.26960 -47.10491 36411 ft 420 kts 244°
2026-04-07 16:58 29.24408 -47.16525 36409 ft 421 kts 244°
2026-04-07 16:58 29.21853 -47.22554 36410 ft 421 kts 244°
2026-04-07 16:59 29.19294 -47.28587 36408 ft 421 kts 244°
2026-04-07 16:59 29.16729 -47.34621 36406 ft 422 kts 244°
2026-04-07 17:00 29.14155 -47.40669 36406 ft 423 kts 244°
2026-04-07 17:00 29.11594 -47.46673 36404 ft 422 kts 244°
2026-04-07 17:01 29.09016 -47.52713 36402 ft 422 kts 244°
2026-04-07 17:01 29.06438 -47.58743 36397 ft 423 kts 244°
2026-04-07 17:02 29.03851 -47.64785 36400 ft 423 kts 244°
2026-04-07 17:02 29.01259 -47.70830 36399 ft 423 kts 244°
2026-04-07 17:03 28.98681 -47.76830 36399 ft 423 kts 244°
2026-04-07 17:03 28.96082 -47.82870 36405 ft 423 kts 244°
2026-04-07 17:04 28.93483 -47.88902 36396 ft 423 kts 244°
2026-04-07 17:04 28.90874 -47.94947 36393 ft 424 kts 244°
2026-04-07 17:05 28.88267 -48.00978 36393 ft 424 kts 244°
2026-04-07 17:05 28.85654 -48.07013 36390 ft 424 kts 244°
2026-04-07 17:06 28.83040 -48.13044 36386 ft 424 kts 244°
2026-04-07 17:06 28.80423 -48.19071 36389 ft 424 kts 244°
2026-04-07 17:07 28.77822 -48.25052 36390 ft 424 kts 244°
2026-04-07 17:07 28.75197 -48.31080 36386 ft 424 kts 244°
2026-04-07 17:08 28.72570 -48.37102 36382 ft 424 kts 244°
2026-04-07 17:08 28.69943 -48.43117 36383 ft 423 kts 244°
2026-04-07 17:09 28.67315 -48.49123 36384 ft 423 kts 244°
2026-04-07 17:09 28.64701 -48.55088 36382 ft 423 kts 244°
2026-04-07 17:10 28.62069 -48.61086 36381 ft 423 kts 244°
2026-04-07 17:10 28.59432 -48.67086 36379 ft 423 kts 244°
2026-04-07 17:11 28.56792 -48.73084 36375 ft 424 kts 244°
2026-04-07 17:11 28.54147 -48.79083 36374 ft 424 kts 244°
2026-04-07 17:12 28.51493 -48.85094 36376 ft 424 kts 244°
2026-04-07 17:12 28.48857 -48.91056 36376 ft 424 kts 244°
2026-04-07 17:13 28.46205 -48.97046 36373 ft 423 kts 243°
2026-04-07 17:13 28.43553 -49.03027 36371 ft 423 kts 243°
2026-04-07 17:14 28.40901 -49.08999 36377 ft 423 kts 243°
2026-04-07 17:14 28.38241 -49.14978 36370 ft 425 kts 243°
2026-04-07 17:15 28.35575 -49.20965 36364 ft 425 kts 243°
2026-04-07 17:15 28.32897 -49.26966 36368 ft 427 kts 243°
2026-04-07 17:16 28.30225 -49.32947 36369 ft 427 kts 243°
2026-04-07 17:16 28.27537 -49.38955 36368 ft 426 kts 243°
2026-04-07 17:17 28.24849 -49.44955 36367 ft 427 kts 243°
2026-04-07 17:17 28.22154 -49.50960 36364 ft 427 kts 243°
2026-04-07 17:18 28.19452 -49.56971 36362 ft 428 kts 243°
2026-04-07 17:18 28.16750 -49.62973 36362 ft 427 kts 243°
2026-04-07 17:19 28.14064 -49.68933 36363 ft 427 kts 243°
2026-04-07 17:19 28.11360 -49.74924 36367 ft 427 kts 243°
2026-04-07 17:20 28.09111 -49.79899 36362 ft 426 kts 243°
2026-04-07 17:20 28.06407 -49.85874 36360 ft 426 kts 243°
2026-04-07 17:21 28.03707 -49.91831 36360 ft 426 kts 243°
2026-04-07 17:21 28.00999 -49.97796 36362 ft 426 kts 243°
2026-04-07 17:22 27.98456 -50.03837 36347 ft 425 kts 246°
2026-04-07 17:22 27.96162 -50.09997 36352 ft 424 kts 248°
2026-04-07 17:23 27.93895 -50.16167 36350 ft 424 kts 247°
2026-04-07 17:23 27.91615 -50.22275 36352 ft 424 kts 247°
2026-04-07 17:24 27.89298 -50.28419 36351 ft 425 kts 247°
2026-04-07 17:24 27.86972 -50.34559 36348 ft 425 kts 247°
2026-04-07 17:25 27.84644 -50.40699 36349 ft 426 kts 247°
2026-04-07 17:25 27.82307 -50.46855 36348 ft 426 kts 246°
2026-04-07 17:26 27.79969 -50.53003 36346 ft 425 kts 246°
2026-04-07 17:26 27.77648 -50.59099 36342 ft 425 kts 246°
2026-04-07 17:27 27.75306 -50.65240 36352 ft 425 kts 247°
2026-04-07 17:27 27.72957 -50.71388 36345 ft 426 kts 247°
2026-04-07 17:28 27.70606 -50.77532 36342 ft 426 kts 247°
2026-04-07 17:28 27.68255 -50.83669 36344 ft 426 kts 247°
2026-04-07 17:29 27.65900 -50.89802 36346 ft 426 kts 247°
2026-04-07 17:29 27.63539 -50.95946 36337 ft 427 kts 247°
2026-04-07 17:30 27.61173 -51.02089 36336 ft 427 kts 247°
2026-04-07 17:30 27.58822 -51.08186 36334 ft 426 kts 247°
2026-04-07 17:31 27.56457 -51.14308 36335 ft 426 kts 247°
2026-04-07 17:31 27.54090 -51.20427 36335 ft 426 kts 247°
2026-04-07 17:32 27.51715 -51.26557 36335 ft 426 kts 247°
2026-04-07 17:32 27.49336 -51.32689 36336 ft 426 kts 247°
2026-04-07 17:33 27.46958 -51.38806 36329 ft 427 kts 247°
2026-04-07 17:33 27.44588 -51.44895 36332 ft 428 kts 247°
2026-04-07 17:34 27.42195 -51.51034 36329 ft 428 kts 247°
2026-04-07 17:34 27.39802 -51.57161 36330 ft 428 kts 247°
2026-04-07 17:35 27.37401 -51.63300 36327 ft 429 kts 247°
2026-04-07 17:35 27.34990 -51.69455 36323 ft 430 kts 247°
2026-04-07 17:36 27.32574 -51.75615 36322 ft 430 kts 247°
2026-04-07 17:36 27.30153 -51.81777 36327 ft 430 kts 247°
2026-04-07 17:37 27.27740 -51.87909 36323 ft 433 kts 247°
2026-04-07 17:37 27.25295 -51.94113 36320 ft 433 kts 247°
2026-04-07 17:38 27.22849 -52.00310 36316 ft 433 kts 247°
2026-04-07 17:38 27.20411 -52.06476 36317 ft 431 kts 247°
2026-04-07 17:39 27.17963 -52.12660 36316 ft 434 kts 247°
2026-04-07 17:39 27.15518 -52.18822 36316 ft 435 kts 247°
2026-04-07 17:40 27.13055 -52.25023 36317 ft 435 kts 247°
2026-04-07 17:40 27.10587 -52.31225 36311 ft 436 kts 248°
2026-04-07 17:41 27.08102 -52.37464 36313 ft 437 kts 247°
2026-04-07 17:41 27.05619 -52.43686 36308 ft 436 kts 247°
2026-04-07 17:42 27.03152 -52.49858 36308 ft 436 kts 247°
2026-04-07 17:42 27.00646 -52.56117 36304 ft 438 kts 248°
2026-04-07 17:43 26.98150 -52.62347 36306 ft 442 kts 247°
2026-04-07 17:43 26.95625 -52.68636 36296 ft 441 kts 247°
2026-04-07 17:44 26.93111 -52.74886 36310 ft 439 kts 247°
2026-04-07 17:44 26.90592 -52.81138 36308 ft 441 kts 248°
2026-04-07 17:45 26.88075 -52.87381 36295 ft 443 kts 248°
2026-04-07 17:45 26.85530 -52.93681 36303 ft 444 kts 247°
2026-04-07 17:46 26.82984 -52.99972 36294 ft 443 kts 248°
2026-04-07 17:46 26.80434 -53.06262 36300 ft 444 kts 248°
2026-04-07 17:47 26.77870 -53.12581 36297 ft 446 kts 248°
2026-04-07 17:47 26.75302 -53.18898 36297 ft 446 kts 248°
2026-04-07 17:48 26.72748 -53.25171 36292 ft 446 kts 248°
2026-04-07 17:48 26.70169 -53.31498 36291 ft 449 kts 248°
2026-04-07 17:49 26.67568 -53.37866 36291 ft 449 kts 248°
2026-04-07 17:49 26.64972 -53.44211 36288 ft 448 kts 248°
2026-04-07 17:50 26.62380 -53.50539 36286 ft 448 kts 248°
2026-04-07 17:50 26.59785 -53.56865 36283 ft 448 kts 247°
2026-04-07 17:51 26.57186 -53.63189 36286 ft 448 kts 248°
2026-04-07 17:51 26.54586 -53.69506 36277 ft 448 kts 247°
2026-04-07 17:52 26.51989 -53.75808 36287 ft 446 kts 248°
2026-04-07 17:52 26.49400 -53.82081 36285 ft 449 kts 247°
2026-04-07 17:53 26.46782 -53.88416 36285 ft 449 kts 248°
2026-04-07 17:53 26.42844 -53.97920 36284 ft 449 kts 247°
2026-04-07 17:54 26.40234 -54.04210 36275 ft 450 kts 247°
2026-04-07 17:54 26.37601 -54.10547 36278 ft 450 kts 248°
2026-04-07 17:55 26.34965 -54.16879 36279 ft 449 kts 247°
2026-04-07 17:55 26.32329 -54.23203 36279 ft 449 kts 247°
2026-04-07 17:56 26.29706 -54.29484 36276 ft 451 kts 247°
2026-04-07 17:56 26.27051 -54.35835 36271 ft 451 kts 247°
2026-04-07 17:57 26.24398 -54.42170 36269 ft 451 kts 248°
2026-04-07 17:57 26.21746 -54.48494 36271 ft 450 kts 247°
2026-04-07 17:58 26.19094 -54.54809 36271 ft 451 kts 247°
2026-04-07 17:58 26.16426 -54.61151 36266 ft 452 kts 248°
2026-04-07 17:59 26.13759 -54.67483 36261 ft 452 kts 247°
2026-04-07 17:59 26.11101 -54.73781 36265 ft 452 kts 247°
2026-04-07 18:00 26.08424 -54.80118 36261 ft 452 kts 248°
2026-04-07 18:00 26.05748 -54.86442 36263 ft 452 kts 246°
2026-04-07 18:01 26.03066 -54.92768 36265 ft 452 kts 248°
2026-04-07 18:01 26.00353 -54.99076 36260 ft 453 kts 244°
2026-04-07 18:02 25.97108 -55.05107 36259 ft 454 kts 240°
2026-04-07 18:02 25.93732 -55.11053 36260 ft 455 kts 239°
2026-04-07 18:03 25.90347 -55.16946 36248 ft 455 kts 240°
2026-04-07 18:03 25.86945 -55.22879 36252 ft 455 kts 239°
2026-04-07 18:04 25.83544 -55.28815 36248 ft 455 kts 239°
2026-04-07 18:04 25.80142 -55.34751 36250 ft 456 kts 240°
2026-04-07 18:05 25.76735 -55.40691 36240 ft 456 kts 239°
2026-04-07 18:05 25.73327 -55.46624 36246 ft 455 kts 239°
2026-04-07 18:06 25.69919 -55.52546 36241 ft 455 kts 239°
2026-04-07 18:06 25.66529 -55.58432 36238 ft 455 kts 239°
2026-04-07 18:07 25.63115 -55.64351 36239 ft 455 kts 240°
2026-04-07 18:07 25.59698 -55.70268 36238 ft 455 kts 238°
2026-04-07 18:08 25.56291 -55.76161 36235 ft 453 kts 239°
2026-04-07 18:08 25.52883 -55.82047 36243 ft 453 kts 239°
2026-04-07 18:09 25.50053 -55.86930 36237 ft 453 kts 240°
2026-04-07 18:09 25.46644 -55.92804 36235 ft 454 kts 239°
2026-04-07 18:10 25.42677 -55.99631 36236 ft 454 kts 239°
2026-04-07 18:10 25.39817 -56.04549 36231 ft 451 kts 239°
2026-04-07 18:11 25.36447 -56.10333 36226 ft 449 kts 239°
2026-04-07 18:11 25.33058 -56.16148 36226 ft 449 kts 238°
2026-04-07 18:12 25.29673 -56.21946 36245 ft 449 kts 239°
2026-04-07 18:12 25.26282 -56.27746 36224 ft 449 kts 239°
2026-04-07 18:13 25.22888 -56.33543 36226 ft 448 kts 239°
2026-04-07 18:13 25.19537 -56.39260 36225 ft 445 kts 238°
2026-04-07 18:14 25.16174 -56.44991 36218 ft 444 kts 238°
2026-04-07 18:14 25.12814 -56.50714 36221 ft 444 kts 239°
2026-04-07 18:15 25.09442 -56.56447 36216 ft 445 kts 240°
2026-04-07 18:15 25.06074 -56.62166 36212 ft 444 kts 240°
2026-04-07 18:16 25.02717 -56.67860 36228 ft 441 kts 239°
2026-04-07 18:16 24.99391 -56.73495 36229 ft 441 kts 239°
2026-04-07 18:17 24.96043 -56.79161 36211 ft 441 kts 239°
2026-04-07 18:17 24.92692 -56.84825 36201 ft 441 kts 239°
2026-04-07 18:18 24.89346 -56.90474 36208 ft 440 kts 239°
2026-04-07 18:18 24.86001 -56.96113 36212 ft 439 kts 239°
2026-04-07 18:19 24.82660 -57.01741 36197 ft 438 kts 239°
2026-04-07 18:19 24.79324 -57.07353 36212 ft 438 kts 239°
2026-04-07 18:20 24.76005 -57.12931 36209 ft 438 kts 239°
2026-04-07 18:20 24.72667 -57.18533 36207 ft 438 kts 239°
2026-04-07 18:21 24.69322 -57.24141 36205 ft 438 kts 239°
2026-04-07 18:21 24.65979 -57.29737 36199 ft 437 kts 239°
2026-04-07 18:22 24.62639 -57.35324 36199 ft 437 kts 239°
2026-04-07 18:22 24.59297 -57.40907 36199 ft 437 kts 239°
2026-04-07 18:23 24.55978 -57.46446 36197 ft 437 kts 239°
2026-04-07 18:23 24.52677 -57.51948 36193 ft 437 kts 239°
2026-04-07 18:24 24.49336 -57.57511 36188 ft 436 kts 239°
2026-04-07 18:24 24.45994 -57.63068 36189 ft 436 kts 239°
2026-04-07 18:25 24.42655 -57.68615 36189 ft 435 kts 239°
2026-04-07 18:25 24.39316 -57.74155 36189 ft 435 kts 239°
2026-04-07 18:26 24.36001 -57.79650 36190 ft 435 kts 239°
2026-04-07 18:26 24.32662 -57.85178 36189 ft 435 kts 239°
2026-04-07 18:27 24.29316 -57.90711 36181 ft 434 kts 239°
2026-04-07 18:27 24.25980 -57.96220 36184 ft 433 kts 238°
2026-04-07 18:28 24.22649 -58.01717 36183 ft 433 kts 238°
2026-04-07 18:28 24.19313 -58.07215 36184 ft 433 kts 238°
2026-04-07 18:29 24.15980 -58.12703 36184 ft 433 kts 238°
2026-04-07 18:29 24.12639 -58.18196 36181 ft 433 kts 238°
2026-04-07 18:30 24.09322 -58.23645 36182 ft 433 kts 238°
2026-04-07 18:30 24.05981 -58.29127 36178 ft 433 kts 238°
2026-04-07 18:31 24.02636 -58.34610 36174 ft 433 kts 238°
2026-04-07 18:31 23.99294 -58.40081 36173 ft 433 kts 238°
2026-04-07 18:32 23.95948 -58.45554 36173 ft 433 kts 238°
2026-04-07 18:32 23.92598 -58.51026 36172 ft 433 kts 238°
2026-04-07 18:33 23.89247 -58.56494 36170 ft 432 kts 238°
2026-04-07 18:33 23.85900 -58.61950 36170 ft 432 kts 238°
2026-04-07 18:34 23.82549 -58.67406 36168 ft 432 kts 238°
2026-04-07 18:34 23.79196 -58.72859 36168 ft 432 kts 238°
2026-04-07 18:35 23.75840 -58.78312 36165 ft 432 kts 238°
2026-04-07 18:35 23.72483 -58.83760 36165 ft 432 kts 238°
2026-04-07 18:36 23.69150 -58.89164 36164 ft 432 kts 238°
2026-04-07 18:36 23.65788 -58.94608 36162 ft 432 kts 238°
2026-04-07 18:37 23.62431 -59.00039 36162 ft 432 kts 238°
2026-04-07 18:37 23.59071 -59.05469 36159 ft 432 kts 238°
2026-04-07 18:38 23.55703 -59.10906 36159 ft 432 kts 238°
2026-04-07 18:38 23.52355 -59.16305 36157 ft 432 kts 238°
2026-04-07 18:39 23.48986 -59.21731 36154 ft 432 kts 238°
2026-04-07 18:39 23.45610 -59.27164 36154 ft 432 kts 238°
2026-04-07 18:40 23.42242 -59.32577 36156 ft 432 kts 238°
2026-04-07 18:40 23.38893 -59.37954 36154 ft 432 kts 238°
2026-04-07 18:41 23.35514 -59.43375 36151 ft 432 kts 238°
2026-04-07 18:41 23.32136 -59.48787 36149 ft 432 kts 238°
2026-04-07 18:42 23.28758 -59.54192 36148 ft 432 kts 238°
2026-04-07 18:42 23.25400 -59.59563 36146 ft 432 kts 238°
2026-04-07 18:43 23.22018 -59.64964 36145 ft 432 kts 238°
2026-04-07 18:43 23.18632 -59.70366 36146 ft 432 kts 238°
2026-04-07 18:44 23.15247 -59.75762 36146 ft 432 kts 237°
2026-04-07 18:44 23.11862 -59.81151 36146 ft 432 kts 237°
2026-04-07 18:45 23.08495 -59.86506 36139 ft 432 kts 237°
2026-04-07 18:45 23.05105 -59.91893 36140 ft 432 kts 237°
2026-04-07 18:46 23.01698 -59.97301 36139 ft 432 kts 237°
2026-04-07 18:46 22.98340 -60.02713 36135 ft 432 kts 238°
2026-04-07 18:47 22.95063 -60.08191 36132 ft 432 kts 239°
2026-04-07 18:47 22.91827 -60.13632 36132 ft 432 kts 239°
2026-04-07 18:48 22.88553 -60.19111 36127 ft 432 kts 239°
2026-04-07 18:48 22.85275 -60.24577 36131 ft 432 kts 238°
2026-04-07 18:49 22.81992 -60.30042 36130 ft 432 kts 238°
2026-04-07 18:49 22.78708 -60.35502 36130 ft 432 kts 238°
2026-04-07 18:50 22.75424 -60.40957 36124 ft 432 kts 238°
2026-04-07 18:50 22.72132 -60.46420 36131 ft 432 kts 238°
2026-04-07 18:51 22.68840 -60.51878 36127 ft 432 kts 238°
2026-04-07 18:51 22.65568 -60.57296 36121 ft 431 kts 239°
2026-04-07 18:52 22.62287 -60.62724 36122 ft 431 kts 239°
2026-04-07 18:52 22.59005 -60.68147 36118 ft 430 kts 239°
2026-04-07 18:53 22.55718 -60.73575 36121 ft 430 kts 239°
2026-04-07 18:53 22.52437 -60.78985 36120 ft 430 kts 239°
2026-04-07 18:54 22.49155 -60.84392 36119 ft 429 kts 239°
2026-04-07 18:54 22.45896 -60.89755 36104 ft 429 kts 239°
2026-04-07 18:55 22.42624 -60.95134 36118 ft 427 kts 239°
2026-04-07 18:55 22.39358 -61.00499 36116 ft 427 kts 239°
2026-04-07 18:56 22.36086 -61.05868 36114 ft 427 kts 239°
2026-04-07 18:56 22.32816 -61.11227 36110 ft 427 kts 239°
2026-04-07 18:57 22.29543 -61.16585 36110 ft 427 kts 239°
2026-04-07 18:57 22.26265 -61.21947 36110 ft 427 kts 239°
2026-04-07 18:58 22.23541 -61.26397 36101 ft 427 kts 239°
2026-04-07 18:58 22.20268 -61.31740 36108 ft 426 kts 239°
2026-04-07 18:59 22.16999 -61.37072 36108 ft 425 kts 239°
2026-04-07 18:59 22.13733 -61.42393 36108 ft 425 kts 239°
2026-04-07 19:00 22.10488 -61.47676 36104 ft 425 kts 240°
2026-04-07 19:00 22.07219 -61.52994 36105 ft 425 kts 239°
2026-04-07 19:01 22.03951 -61.58304 36103 ft 425 kts 239°
2026-04-07 19:02 21.99041 -61.66272 36102 ft 425 kts 239°
2026-04-07 19:02 21.95767 -61.71577 36099 ft 425 kts 239°
2026-04-07 19:03 21.92492 -61.76880 36099 ft 425 kts 239°
2026-04-07 19:03 21.89213 -61.82184 36100 ft 425 kts 239°
2026-04-07 19:04 21.85933 -61.87485 36100 ft 425 kts 239°
2026-04-07 19:04 21.82672 -61.92749 36102 ft 425 kts 239°
2026-04-07 19:05 21.79385 -61.98049 36094 ft 424 kts 240°
2026-04-07 19:05 21.76113 -62.03319 36094 ft 422 kts 240°
2026-04-07 19:06 21.72851 -62.08571 36094 ft 422 kts 240°
2026-04-07 19:06 21.69589 -62.13818 36094 ft 422 kts 240°
2026-04-07 19:07 21.66344 -62.19032 36094 ft 422 kts 240°
2026-04-07 19:07 21.63077 -62.24276 36090 ft 422 kts 240°
2026-04-07 19:08 21.59810 -62.29516 36086 ft 422 kts 240°
2026-04-07 19:08 21.56540 -62.34753 36084 ft 421 kts 240°
2026-04-07 19:09 21.53286 -62.39960 36091 ft 419 kts 240°
2026-04-07 19:09 21.50031 -62.45167 36086 ft 419 kts 240°
2026-04-07 19:10 21.46777 -62.50367 36085 ft 419 kts 240°
2026-04-07 19:10 21.43521 -62.55564 36081 ft 420 kts 240°
2026-04-07 19:11 21.40262 -62.60760 36089 ft 420 kts 240°
2026-04-07 19:11 21.37019 -62.65927 36079 ft 420 kts 240°
2026-04-07 19:12 21.33756 -62.71119 36075 ft 419 kts 240°
2026-04-07 19:12 21.30499 -62.76294 36081 ft 417 kts 240°
2026-04-07 19:13 21.27249 -62.81456 36079 ft 417 kts 240°
2026-04-07 19:13 21.24002 -62.86610 36078 ft 417 kts 240°
2026-04-07 19:14 21.20748 -62.91770 36075 ft 418 kts 240°
2026-04-07 19:14 21.17485 -62.96940 36074 ft 418 kts 240°
2026-04-07 19:15 21.14249 -63.02060 36073 ft 418 kts 240°
2026-04-07 19:15 21.10991 -63.07209 36065 ft 417 kts 240°
2026-04-07 19:16 21.07740 -63.12341 36069 ft 416 kts 240°
2026-04-07 19:16 21.04498 -63.17458 36070 ft 415 kts 240°
2026-04-07 19:17 21.01251 -63.22578 36070 ft 415 kts 240°
2026-04-07 19:17 20.98000 -63.27699 36067 ft 415 kts 240°
2026-04-07 19:18 20.94751 -63.32813 36066 ft 415 kts 240°
2026-04-07 19:18 20.91498 -63.37928 36064 ft 415 kts 240°
2026-04-07 19:19 20.88249 -63.43033 36052 ft 415 kts 240°
2026-04-07 19:19 20.85018 -63.48103 36058 ft 414 kts 240°
2026-04-07 19:20 20.81771 -63.53196 36072 ft 414 kts 240°
2026-04-07 19:20 20.78525 -63.58282 36056 ft 414 kts 240°
2026-04-07 19:21 20.75281 -63.63375 36055 ft 414 kts 240°
2026-04-07 19:21 20.72153 -63.68534 36062 ft 413 kts 242°
2026-04-07 19:22 20.69081 -63.73723 36052 ft 413 kts 242°
2026-04-07 19:22 20.66005 -63.78911 36055 ft 413 kts 242°
2026-04-07 19:23 20.62933 -63.84062 36056 ft 413 kts 242°
2026-04-07 19:23 20.59847 -63.89220 36050 ft 412 kts 242°
2026-04-07 19:24 20.56767 -63.94364 36052 ft 412 kts 242°
2026-04-07 19:24 20.53682 -63.99512 36051 ft 412 kts 242°
2026-04-07 19:25 20.50597 -64.04657 36051 ft 412 kts 242°
2026-04-07 19:25 20.47509 -64.09801 36051 ft 411 kts 242°
2026-04-07 19:26 20.44422 -64.14940 36052 ft 411 kts 242°
2026-04-07 19:26 20.41353 -64.20044 36044 ft 411 kts 242°
2026-04-07 19:27 20.38267 -64.25172 36047 ft 410 kts 242°
2026-04-07 19:27 20.35185 -64.30288 36046 ft 410 kts 242°
2026-04-07 19:28 20.32102 -64.35402 36043 ft 410 kts 242°
2026-04-07 19:28 20.29021 -64.40508 36043 ft 410 kts 242°
2026-04-07 19:29 20.25933 -64.45620 36041 ft 410 kts 242°
2026-04-07 19:29 20.22851 -64.50719 36038 ft 410 kts 241°
2026-04-07 19:30 20.19763 -64.55823 36032 ft 410 kts 241°
2026-04-07 19:30 20.16677 -64.60918 36025 ft 409 kts 242°
2026-04-07 19:31 20.13609 -64.65980 36041 ft 408 kts 242°
2026-04-07 19:31 20.10530 -64.71055 36037 ft 408 kts 242°
2026-04-07 19:32 20.07452 -64.76125 36037 ft 408 kts 241°
2026-04-07 19:32 20.04372 -64.81192 36038 ft 408 kts 241°
2026-04-07 19:33 20.01289 -64.86260 36032 ft 408 kts 241°
2026-04-07 19:33 19.98219 -64.91301 36034 ft 408 kts 241°
2026-04-07 19:34 19.95135 -64.96363 36032 ft 408 kts 241°
2026-04-07 19:34 19.92047 -65.01426 36017 ft 408 kts 241°
2026-04-07 19:35 19.88961 -65.06481 36028 ft 407 kts 241°
2026-04-07 19:35 19.85878 -65.11528 36029 ft 407 kts 241°
2026-04-07 19:36 19.82795 -65.16571 36029 ft 407 kts 241°
2026-04-07 19:36 19.79710 -65.21612 36028 ft 407 kts 241°
2026-04-07 19:37 19.76643 -65.26621 36024 ft 407 kts 241°
2026-04-07 19:37 19.73555 -65.31660 36026 ft 407 kts 241°
2026-04-07 19:38 19.70463 -65.36701 36026 ft 407 kts 241°
2026-04-07 19:38 19.67364 -65.41747 36026 ft 407 kts 241°
2026-04-07 19:39 19.64270 -65.46782 36026 ft 407 kts 241°
2026-04-07 19:39 19.61193 -65.51786 36021 ft 407 kts 241°
2026-04-07 19:40 19.58092 -65.56824 36021 ft 407 kts 241°
2026-04-07 19:40 19.54990 -65.61860 36021 ft 407 kts 241°
2026-04-07 19:41 19.51883 -65.66899 36018 ft 408 kts 241°
2026-04-07 19:41 19.48775 -65.71936 36018 ft 408 kts 241°
2026-04-07 19:42 19.45689 -65.76933 36012 ft 408 kts 241°
2026-04-07 19:42 19.42619 -65.81990 36000 ft 407 kts 242°
2026-04-07 19:43 19.39742 -65.87141 36011 ft 405 kts 244°
2026-04-07 19:43 19.36922 -65.92309 36010 ft 405 kts 244°
2026-04-07 19:44 19.34090 -65.97469 36013 ft 405 kts 243°
2026-04-07 19:44 19.31240 -66.02622 36005 ft 405 kts 243°
2026-04-07 19:45 19.28401 -66.07739 36010 ft 405 kts 243°
2026-04-07 19:45 19.25547 -66.12877 36002 ft 405 kts 243°
2026-04-07 19:46 19.22686 -66.18025 36003 ft 405 kts 243°
2026-04-07 19:46 19.19828 -66.23163 36008 ft 405 kts 243°
2026-04-07 19:47 19.17450 -66.27434 35991 ft 405 kts 243°
2026-04-07 19:47 19.14588 -66.32570 35716 ft 405 kts 243°
2026-04-07 19:47 19.13160 -66.35132 35415 ft 405 kts 243°
2026-04-07 19:48 19.11249 -66.38559 34996 ft 412 kts 243°
2026-04-07 19:48 19.09787 -66.41182 34707 ft 415 kts 243°
2026-04-07 19:48 19.08792 -66.42966 34508 ft 417 kts 243°
2026-04-07 19:48 19.07316 -66.45610 34221 ft 419 kts 243°
2026-04-07 19:49 19.05827 -66.48274 33919 ft 421 kts 243°
2026-04-07 19:49 19.04333 -66.50948 33569 ft 423 kts 243°
2026-04-07 19:49 19.02850 -66.53599 33246 ft 425 kts 242°
2026-04-07 19:49 19.01339 -66.56299 32914 ft 427 kts 242°
2026-04-07 19:50 18.99828 -66.58998 32591 ft 428 kts 242°
2026-04-07 19:50 18.98309 -66.61712 32272 ft 430 kts 242°
2026-04-07 19:50 18.96785 -66.64432 31955 ft 431 kts 242°
2026-04-07 19:50 18.95254 -66.67163 31638 ft 432 kts 242°
2026-04-07 19:51 18.93722 -66.69896 31317 ft 431 kts 242°
2026-04-07 19:51 18.92196 -66.72616 31000 ft 430 kts 242°
2026-04-07 19:51 18.90672 -66.75330 30696 ft 429 kts 242°
2026-04-07 19:51 18.89154 -66.78033 30395 ft 427 kts 242°
2026-04-07 19:52 18.87640 -66.80729 30109 ft 426 kts 242°
2026-04-07 19:52 18.86127 -66.83420 29760 ft 424 kts 242°
2026-04-07 19:52 18.84623 -66.86096 29408 ft 423 kts 242°
2026-04-07 19:52 18.83124 -66.88762 29058 ft 421 kts 241°
2026-04-07 19:53 18.81633 -66.91412 28689 ft 420 kts 241°
2026-04-07 19:53 18.80144 -66.94059 28250 ft 418 kts 241°
2026-04-07 19:53 18.78661 -66.96692 27821 ft 416 kts 241°
2026-04-07 19:53 18.77203 -66.99281 27406 ft 414 kts 241°
2026-04-07 19:54 18.75736 -67.01883 26992 ft 412 kts 241°
2026-04-07 19:54 18.74275 -67.04476 26580 ft 410 kts 241°
2026-04-07 19:54 18.72821 -67.07054 26171 ft 408 kts 240°
2026-04-07 19:54 18.71372 -67.09621 25771 ft 406 kts 240°
2026-04-07 19:55 18.69929 -67.12180 25384 ft 404 kts 240°
2026-04-07 19:55 18.68490 -67.14727 24984 ft 403 kts 240°
2026-04-07 19:55 18.67061 -67.17257 24596 ft 401 kts 240°
2026-04-07 19:55 18.65632 -67.19786 24217 ft 400 kts 240°
2026-04-07 19:56 18.64211 -67.22299 23847 ft 399 kts 240°
2026-04-07 19:56 18.62795 -67.24804 23459 ft 397 kts 240°
2026-04-07 19:56 18.61385 -67.27295 23015 ft 395 kts 240°
2026-04-07 19:56 18.59978 -67.29781 22574 ft 393 kts 240°
2026-04-07 19:57 18.58580 -67.32249 22141 ft 391 kts 240°
2026-04-07 19:57 18.57192 -67.34699 21715 ft 388 kts 240°
2026-04-07 19:57 18.55829 -67.37104 21300 ft 386 kts 240°
2026-04-07 19:57 18.54452 -67.39532 20884 ft 384 kts 239°
2026-04-07 19:58 18.53087 -67.41937 20477 ft 382 kts 239°
2026-04-07 19:58 18.51729 -67.44331 20062 ft 379 kts 239°
2026-04-07 19:58 18.50406 -67.46725 19664 ft 377 kts 243°
2026-04-07 19:58 18.49465 -67.49288 19276 ft 375 kts 255°
2026-04-07 19:59 18.49078 -67.51995 18889 ft 373 kts 265°
2026-04-07 19:59 18.48948 -67.54721 18512 ft 372 kts 267°
2026-04-07 19:59 18.48876 -67.57436 18110 ft 370 kts 268°
2026-04-07 19:59 18.48816 -67.60143 17670 ft 368 kts 268°
2026-04-07 20:00 18.48758 -67.62835 17241 ft 366 kts 268°
2026-04-07 20:00 18.48701 -67.65511 16814 ft 364 kts 267°
2026-04-07 20:00 18.48586 -67.70812 15979 ft 360 kts 267°
2026-04-07 20:01 18.48529 -67.73404 15575 ft 358 kts 267°
2026-04-07 20:01 18.48472 -67.76020 15175 ft 353 kts 267°
2026-04-07 20:01 18.48416 -67.78578 14772 ft 346 kts 267°
2026-04-07 20:01 18.48360 -67.81091 14372 ft 340 kts 267°
2026-04-07 20:02 18.48305 -67.83558 13991 ft 334 kts 267°
2026-04-07 20:02 18.48250 -67.85990 13587 ft 329 kts 267°
2026-04-07 20:02 18.48195 -67.88384 13141 ft 325 kts 267°
2026-04-07 20:02 18.48141 -67.90744 12717 ft 320 kts 267°
2026-04-07 20:03 18.48088 -67.93072 12293 ft 316 kts 267°
2026-04-07 20:03 18.48035 -67.95380 11878 ft 313 kts 266°
2026-04-07 20:03 18.47982 -67.97659 11466 ft 309 kts 266°
2026-04-07 20:03 18.47947 -67.99915 11061 ft 307 kts 268°
2026-04-07 20:04 18.47985 -68.02150 10660 ft 304 kts 269°
2026-04-07 20:04 18.48043 -68.04338 10275 ft 302 kts 269°
2026-04-07 20:04 18.48104 -68.06544 9883 ft 300 kts 269°
2026-04-07 20:04 18.48165 -68.08730 9449 ft 298 kts 269°
2026-04-07 20:05 18.48225 -68.10903 9022 ft 296 kts 269°
2026-04-07 20:05 18.48284 -68.13063 8594 ft 294 kts 269°
2026-04-07 20:05 18.48342 -68.15214 8179 ft 293 kts 269°
2026-04-07 20:05 18.48399 -68.17350 7769 ft 291 kts 269°
2026-04-07 20:06 18.48456 -68.19481 7371 ft 290 kts 269°
2026-04-07 20:06 18.48513 -68.21601 6965 ft 289 kts 269°
2026-04-07 20:06 18.48568 -68.23711 6571 ft 287 kts 270°
2026-04-07 20:06 18.48624 -68.25813 6162 ft 287 kts 269°
2026-04-07 20:07 18.48679 -68.27910 5747 ft 286 kts 269°
2026-04-07 20:07 18.48733 -68.29971 5419 ft 284 kts 269°
2026-04-07 20:07 18.48787 -68.32053 5164 ft 284 kts 269°
2026-04-07 20:07 18.48841 -68.34135 5013 ft 285 kts 269°
2026-04-07 20:08 18.48895 -68.36223 4869 ft 284 kts 270°
2026-04-07 20:08 18.48948 -68.38303 4728 ft 283 kts 270°
2026-04-07 20:08 18.49002 -68.40369 4570 ft 283 kts 269°
2026-04-07 20:08 18.49054 -68.42445 4423 ft 284 kts 270°
2026-04-07 20:09 18.49107 -68.44518 4266 ft 282 kts 269°
2026-04-07 20:09 18.49160 -68.46589 4118 ft 283 kts 269°
2026-04-07 20:09 18.49212 -68.48654 3973 ft 282 kts 269°
2026-04-07 20:09 18.49264 -68.50712 3848 ft 280 kts 269°
2026-04-07 20:10 18.49315 -68.52763 3779 ft 280 kts 269°
2026-04-07 20:10 18.49366 -68.54811 3691 ft 279 kts 269°
2026-04-07 20:10 18.49416 -68.56822 3590 ft 275 kts 269°
2026-04-07 20:10 18.49466 -68.58794 3500 ft 262 kts 269°
2026-04-07 20:11 18.49514 -68.60665 3441 ft 250 kts 269°
2026-04-07 20:11 18.49558 -68.62458 3391 ft 239 kts 269°
2026-04-07 20:11 18.49600 -68.64190 3335 ft 235 kts 269°
2026-04-07 20:11 18.49640 -68.65915 3289 ft 236 kts 268°
2026-04-07 20:12 18.49681 -68.67648 3239 ft 237 kts 268°
2026-04-07 20:12 18.49720 -68.69382 3185 ft 234 kts 268°
2026-04-07 20:12 18.49507 -68.71055 3129 ft 228 kts 246°
2026-04-07 20:12 18.48577 -68.72353 3063 ft 221 kts 211°
2026-04-07 20:13 18.47174 -68.72924 2967 ft 213 kts 188°
2026-04-07 20:13 18.45757 -68.73175 2841 ft 200 kts 189°
2026-04-07 20:13 18.44505 -68.73730 2711 ft 193 kts 212°
2026-04-07 20:13 18.43672 -68.74829 2595 ft 197 kts 242°
2026-04-07 20:14 18.43459 -68.76244 2458 ft 195 kts 269°
2026-04-07 20:14 18.43586 -68.77618 2327 ft 187 kts 275°
2026-04-07 20:14 18.43763 -68.78931 2182 ft 174 kts 275°
2026-04-07 20:14 18.43928 -68.80144 2044 ft 161 kts 274°
2026-04-07 20:15 18.44072 -68.81268 1925 ft 149 kts 275°
2026-04-07 20:15 18.44193 -68.82327 1713 ft 143 kts 276°
2026-04-07 20:15 18.44321 -68.83363 1518 ft 142 kts 275°
2026-04-07 20:15 18.44452 -68.84391 1327 ft 142 kts 276°
2026-04-07 20:16 18.44590 -68.85427 1137 ft 143 kts 274°
2026-04-07 20:16 18.44712 -68.86471 989 ft 145 kts 272°
2026-04-07 20:16 18.44835 -68.87529 753 ft 146 kts 272°
2026-04-07 20:16 18.44952 -68.88602 558 ft 149 kts 272°
2026-04-07 20:17 18.45078 -68.89670 307 ft 143 kts 273°
2026-04-07 20:17 18.45193 -68.90648 226 ft 113 kts 276°
2026-04-07 20:17 18.45255 -68.91188 227 ft 47 kts 277°
2026-04-07 20:17 18.45289 -68.91475 226 ft 21 kts 277°
2026-04-07 20:18 18.45270 -68.91585 226 ft 14 kts 211°
2026-04-07 20:18 18.45172 -68.91605 227 ft 16 kts 186°
2026-04-07 20:18 18.45096 -68.91609 228 ft 6 kts 169°
2026-04-07 20:18 18.45062 -68.91580 229 ft 7 kts 116°
2026-04-07 20:19 18.45053 -68.91522 224 ft 9 kts 95°
2026-04-07 20:19 18.45044 -68.91447 228 ft 11 kts 98°
2026-04-07 20:19 18.45035 -68.91372 226 ft 8 kts 97°
2026-04-07 20:19 18.45022 -68.91275 227 ft 14 kts 105°
2026-04-07 20:20 18.44984 -68.91260 226 ft 6 kts 184°
2026-04-07 20:20 18.44942 -68.91265 227 ft 1 kts 186°
2026-04-07 20:20 18.44941 -68.91265 227 ft 0 kts 186°